Observation data for Mertzon on 01/20/2019      Previous  Date  Next       Current Mesonet Observations  Soil Data  Daily Summary Page  Observations in Plain Language
KME1 200600Z 21003KT M01/M02 A3035 RMK A01 T10121024  RH  092%=      5-min Rain = 0
KME1 200601Z 22002KT M01/M02 A3035 RMK A01 T10121024  RH  092%=      5-min Rain = 0
KME1 200602Z 22002KT M01/M02 A3035 RMK A01 T10121024  RH  092%=      5-min Rain = 0
KME1 200603Z 22002KT M01/M02 A3035 RMK A01 T10121023  RH  092%=      5-min Rain = 0
KME1 200604Z 23001KT M01/M02 A3035 RMK A01 T10121023  RH  092%=      5-min Rain = 0
KME1 200605Z 23001KT M01/M02 A3035 RMK A01 T10121022  RH  092%=      5-min Rain = 0
KME1 200606Z 23001KT M01/M02 A3035 RMK A01 T10111021  RH  093%=      5-min Rain = 0
KME1 200607Z 23001KT M01/M02 A3035 RMK A01 T10101021  RH  093%=      5-min Rain = 0
KME1 200608Z 23001KT M01/M02 A3035 RMK A01 T10101021  RH  092%=      5-min Rain = 0
KME1 200609Z 23001KT M01/M02 A3035 RMK A01 T10101021  RH  092%=      5-min Rain = 0
KME1 200610Z 23001KT M01/M02 A3035 RMK A01 T10101022  RH  092%=      5-min Rain = 0
KME1 200611Z 22002KT M01/M02 A3035 RMK A01 T10111023  RH  092%=      5-min Rain = 0
KME1 200612Z 21002KT M01/M02 A3034 RMK A01 T10111023  RH  092%=      5-min Rain = 0
KME1 200613Z 22002KT M01/M02 A3034 RMK A01 T10111022  RH  092%=      5-min Rain = 0
KME1 200614Z 22002KT M01/M02 A3034 RMK A01 T10111022  RH  092%=      5-min Rain = 0
KME1 200615Z 21003KT M01/M02 A3035 RMK A01 T10111022  RH  092%=      5-min Rain = 0
KME1 200616Z 21003KT M01/M02 A3035 RMK A01 T10101022  RH  092%=      5-min Rain = 0
KME1 200617Z 21003KT M01/M02 A3035 RMK A01 T10101022  RH  092%=      5-min Rain = 0
KME1 200618Z 21002KT M01/M02 A3035 RMK A01 T10101022  RH  092%=      5-min Rain = 0
KME1 200619Z 21003KT M01/M02 A3035 RMK A01 T10101022  RH  092%=      5-min Rain = 0
KME1 200620Z 21003KT M01/M02 A3035 RMK A01 T10111023  RH  091%=      5-min Rain = 0
KME1 200621Z 21003KT M01/M02 A3035 RMK A01 T10101023  RH  091%=      5-min Rain = 0
KME1 200622Z 21002KT M01/M02 A3035 RMK A01 T10101023  RH  091%=      5-min Rain = 0
KME1 200623Z 20002KT M01/M02 A3035 RMK A01 T10101023  RH  091%=      5-min Rain = 0
KME1 200624Z 20002KT M01/M02 A3034 RMK A01 T10111024  RH  091%=      5-min Rain = 0
KME1 200625Z 19003KT M01/M03 A3034 RMK A01 T10121025  RH  091%=      5-min Rain = 0
KME1 200626Z 19003KT M01/M03 A3034 RMK A01 T10121025  RH  091%=      5-min Rain = 0
KME1 200627Z 20002KT M01/M03 A3034 RMK A01 T10121025  RH  091%=      5-min Rain = 0
KME1 200628Z 20002KT M01/M03 A3034 RMK A01 T10121025  RH  091%=      5-min Rain = 0
KME1 200629Z 20002KT M01/M03 A3034 RMK A01 T10131026  RH  091%=      5-min Rain = 0
KME1 200630Z 19002KT M01/M03 A3034 RMK A01 T10131026  RH  091%=      5-min Rain = 0
KME1 200631Z 20001KT M01/M03 A3034 RMK A01 T10131026  RH  091%=      5-min Rain = 0
KME1 200632Z 21000KT M01/M03 A3034 RMK A01 T10131026  RH  091%=      5-min Rain = 0
KME1 200633Z 21001KT M01/M03 A3034 RMK A01 T10141026  RH  092%=      5-min Rain = 0
KME1 200634Z 21001KT M01/M03 A3035 RMK A01 T10141026  RH  092%=      5-min Rain = 0
KME1 200635Z 22002KT M01/M03 A3035 RMK A01 T10141025  RH  092%=      5-min Rain = 0
KME1 200636Z 21003KT M01/M03 A3035 RMK A01 T10141026  RH  092%=      5-min Rain = 0
KME1 200637Z 21003KT M01/M03 A3035 RMK A01 T10141025  RH  092%=      5-min Rain = 0
KME1 200638Z 21004KT M01/M03 A3035 RMK A01 T10141025  RH  092%=      5-min Rain = 0
KME1 200639Z 21005KT M01/M03 A3035 RMK A01 T10141025  RH  092%=      5-min Rain = 0
KME1 200640Z 21005KT M01/M03 A3035 RMK A01 T10141026  RH  092%=      5-min Rain = 0
KME1 200641Z 21005KT M02/M03 A3035 RMK A01 T10151027  RH  092%=      5-min Rain = 0
KME1 200642Z 21005KT M02/M03 A3034 RMK A01 T10151027  RH  092%=      5-min Rain = 0
KME1 200643Z 22005KT M02/M03 A3035 RMK A01 T10151027  RH  092%=      5-min Rain = 0
KME1 200644Z 21005KT M02/M03 A3035 RMK A01 T10161027  RH  092%=      5-min Rain = 0
KME1 200645Z 22004KT M02/M03 A3035 RMK A01 T10161027  RH  092%=      5-min Rain = 0
KME1 200646Z 21004KT M02/M03 A3035 RMK A01 T10151026  RH  092%=      5-min Rain = 0
KME1 200647Z 20004KT M01/M03 A3035 RMK A01 T10141025  RH  093%=      5-min Rain = 0
KME1 200648Z 19003KT M01/M03 A3035 RMK A01 T10141025  RH  093%=      5-min Rain = 0
KME1 200649Z 17002KT M01/M03 A3035 RMK A01 T10141026  RH  092%=      5-min Rain = 0
KME1 200650Z 15002KT M02/M03 A3035 RMK A01 T10171030  RH  090%=      5-min Rain = 0
KME1 200651Z 14001KT M02/M04 A3035 RMK A01 T10201036  RH  089%=      5-min Rain = 0
KME1 200652Z 00000KT M02/M04 A3035 RMK A01 T10221036  RH  090%=      5-min Rain = 0
KME1 200653Z 03000KT M02/M04 A3035 RMK A01 T10221036  RH  090%=      5-min Rain = 0
KME1 200654Z 03001KT M02/M04 A3035 RMK A01 T10231037  RH  091%=      5-min Rain = 0
KME1 200655Z 00000KT M02/M04 A3035 RMK A01 T10241037  RH  091%=      5-min Rain = 0
KME1 200656Z 32001KT M03/M04 A3035 RMK A01 T10251037  RH  091%=      5-min Rain = 0
KME1 200657Z 29001KT M03/M04 A3035 RMK A01 T10251036  RH  092%=      5-min Rain = 0
KME1 200658Z 26002KT M03/M04 A3035 RMK A01 T10251036  RH  092%=      5-min Rain = 0
KME1 200659Z 26002KT M02/M03 A3035 RMK A01 T10241033  RH  093%=      5-min Rain = 0
KME1 200700Z 26002KT M02/M03 A3035 RMK A01 T10221031  RH  094%=      5-min Rain = 0
KME1 200701Z 27002KT M02/M03 A3035 RMK A01 T10221030  RH  094%=      5-min Rain = 0
KME1 200702Z 26001KT M02/M03 A3035 RMK A01 T10211030  RH  094%=      5-min Rain = 0
KME1 200703Z 25001KT M02/M03 A3035 RMK A01 T10211029  RH  094%=      5-min Rain = 0
KME1 200704Z 25001KT M02/M03 A3035 RMK A01 T10211028  RH  094%=      5-min Rain = 0
KME1 200705Z 25000KT M02/M03 A3034 RMK A01 T10211029  RH  094%=      5-min Rain = 0
KME1 200706Z 00000KT M02/M03 A3034 RMK A01 T10201028  RH  094%=      5-min Rain = 0
KME1 200707Z 00000KT M02/M03 A3034 RMK A01 T10211030  RH  093%=      5-min Rain = 0
KME1 200708Z 24000KT M02/M03 A3034 RMK A01 T10211031  RH  093%=      5-min Rain = 0
KME1 200709Z 25002KT M02/M03 A3035 RMK A01 T10211031  RH  093%=      5-min Rain = 0
KME1 200710Z 24002KT M02/M03 A3035 RMK A01 T10211030  RH  093%=      5-min Rain = 0
KME1 200711Z 22001KT M02/M03 A3035 RMK A01 T10191029  RH  093%=      5-min Rain = 0
KME1 200712Z 22003KT M02/M03 A3034 RMK A01 T10191028  RH  093%=      5-min Rain = 0
KME1 200713Z 22003KT M02/M03 A3035 RMK A01 T10191029  RH  093%=      5-min Rain = 0
KME1 200714Z 23003KT M02/M03 A3035 RMK A01 T10191030  RH  092%=      5-min Rain = 0
KME1 200715Z 24004KT M02/M03 A3035 RMK A01 T10201032  RH  092%=      5-min Rain = 0
KME1 200716Z 24004KT M02/M03 A3035 RMK A01 T10211032  RH  092%=      5-min Rain = 0
KME1 200717Z 24003KT M02/M03 A3035 RMK A01 T10211032  RH  092%=      5-min Rain = 0
KME1 200718Z 24003KT M02/M03 A3035 RMK A01 T10211032  RH  092%=      5-min Rain = 0
KME1 200719Z 24002KT M02/M03 A3035 RMK A01 T10211032  RH  093%=      5-min Rain = 0
KME1 200720Z 25001KT M02/M03 A3034 RMK A01 T10211031  RH  093%=      5-min Rain = 0
KME1 200721Z 34000KT M02/M03 A3034 RMK A01 T10211031  RH  093%=      5-min Rain = 0
KME1 200722Z 33001KT M02/M04 A3034 RMK A01 T10241036  RH  091%=      5-min Rain = 0
KME1 200723Z 34001KT M03/M04 A3034 RMK A01 T10261038  RH  091%=      5-min Rain = 0
KME1 200724Z 35001KT M03/M04 A3035 RMK A01 T10271039  RH  091%=      5-min Rain = 0
KME1 200725Z 00001KT M03/M04 A3035 RMK A01 T10271039  RH  091%=      5-min Rain = 0
KME1 200726Z 34001KT M03/M04 A3035 RMK A01 T10271039  RH  092%=      5-min Rain = 0
KME1 200727Z 31002KT M03/M04 A3035 RMK A01 T10281039  RH  092%=      5-min Rain = 0
KME1 200728Z 29001KT M03/M04 A3035 RMK A01 T10281039  RH  092%=      5-min Rain = 0
KME1 200729Z 28001KT M03/M04 A3034 RMK A01 T10281038  RH  093%=      5-min Rain = 0
KME1 200730Z 28001KT M03/M04 A3034 RMK A01 T10271036  RH  093%=      5-min Rain = 0
KME1 200731Z 28001KT M03/M04 A3034 RMK A01 T10271035  RH  094%=      5-min Rain = 0
KME1 200732Z 29002KT M03/M04 A3035 RMK A01 T10271035  RH  094%=      5-min Rain = 0
KME1 200733Z 30002KT M03/M04 A3035 RMK A01 T10271035  RH  094%=      5-min Rain = 0
KME1 200734Z 30001KT M03/M03 A3035 RMK A01 T10261033  RH  094%=      5-min Rain = 0
KME1 200735Z 32002KT M02/M03 A3035 RMK A01 T10241031  RH  095%=      5-min Rain = 0
KME1 200736Z 34002KT M03/M03 A3034 RMK A01 T10251033  RH  094%=      5-min Rain = 0
KME1 200737Z 34002KT M03/M03 A3034 RMK A01 T10251034  RH  093%=      5-min Rain = 0
KME1 200738Z 34002KT M03/M04 A3034 RMK A01 T10271037  RH  093%=      5-min Rain = 0
KME1 200739Z 34002KT M03/M04 A3034 RMK A01 T10271037  RH  093%=      5-min Rain = 0
KME1 200740Z 33002KT M03/M04 A3034 RMK A01 T10271037  RH  093%=      5-min Rain = 0
KME1 200741Z 33003KT M03/M04 A3034 RMK A01 T10271037  RH  093%=      5-min Rain = 0
KME1 200742Z 33003KT M03/M04 A3034 RMK A01 T10271037  RH  093%=      5-min Rain = 0
KME1 200743Z 33002KT M03/M04 A3034 RMK A01 T10271037  RH  093%=      5-min Rain = 0
KME1 200744Z 32002KT M03/M04 A3034 RMK A01 T10271037  RH  093%=      5-min Rain = 0
KME1 200745Z 30003KT M03/M04 A3034 RMK A01 T10271036  RH  093%=      5-min Rain = 0
KME1 200746Z 30003KT M03/M04 A3034 RMK A01 T10271037  RH  093%=      5-min Rain = 0
KME1 200747Z 30003KT M03/M04 A3034 RMK A01 T10281037  RH  093%=      5-min Rain = 0
KME1 200748Z 30002KT M03/M04 A3034 RMK A01 T10291039  RH  093%=      5-min Rain = 0
KME1 200749Z 30001KT M03/M04 A3034 RMK A01 T10291039  RH  093%=      5-min Rain = 0
KME1 200750Z 31001KT M03/M04 A3034 RMK A01 T10301040  RH  093%=      5-min Rain = 0
KME1 200751Z 32000KT M03/M04 A3034 RMK A01 T10311041  RH  093%=      5-min Rain = 0
KME1 200752Z 32000KT M03/M04 A3034 RMK A01 T10321042  RH  092%=      5-min Rain = 0
KME1 200753Z 00001KT M03/M04 A3034 RMK A01 T10321043  RH  092%=      5-min Rain = 0
KME1 200754Z 01001KT M03/M04 A3034 RMK A01 T10331043  RH  092%=      5-min Rain = 0
KME1 200755Z 01001KT M03/M04 A3034 RMK A01 T10341044  RH  092%=      5-min Rain = 0
KME1 200756Z 00000KT M03/M05 A3034 RMK A01 T10341045  RH  092%=      5-min Rain = 0
KME1 200757Z 00000KT M03/M05 A3034 RMK A01 T10341045  RH  092%=      5-min Rain = 0
KME1 200758Z 27000KT M03/M04 A3034 RMK A01 T10341044  RH  093%=      5-min Rain = 0
KME1 200759Z 27000KT M03/M04 A3034 RMK A01 T10341043  RH  093%=      5-min Rain = 0
KME1 200800Z 00000KT M03/M04 A3034 RMK A01 T10331042  RH  094%=      5-min Rain = 0
KME1 200801Z 19001KT M03/M04 A3034 RMK A01 T10331042  RH  094%=      5-min Rain = 0
KME1 200802Z 17001KT M03/M04 A3034 RMK A01 T10331042  RH  094%=      5-min Rain = 0
KME1 200803Z 16000KT M03/M04 A3034 RMK A01 T10331042  RH  094%=      5-min Rain = 0
KME1 200804Z 16000KT M03/M04 A3034 RMK A01 T10331042  RH  094%=      5-min Rain = 0
KME1 200805Z 16000KT M03/M04 A3034 RMK A01 T10341043  RH  093%=      5-min Rain = 0
KME1 200806Z 00000KT M04/M04 A3034 RMK A01 T10351044  RH  093%=      5-min Rain = 0
KME1 200807Z 00000KT M04/M05 A3034 RMK A01 T10351045  RH  093%=      5-min Rain = 0
KME1 200808Z 00000KT M04/M05 A3034 RMK A01 T10351045  RH  093%=      5-min Rain = 0
KME1 200809Z 00000KT M04/M04 A3035 RMK A01 T10351044  RH  093%=      5-min Rain = 0
KME1 200810Z 00000KT M04/M04 A3035 RMK A01 T10351044  RH  094%=      5-min Rain = 0
KME1 200811Z 00000KT M04/M04 A3035 RMK A01 T10351043  RH  094%=      5-min Rain = 0
KME1 200812Z 00000KT M03/M04 A3035 RMK A01 T10341042  RH  094%=      5-min Rain = 0
KME1 200813Z 00000KT M03/M04 A3035 RMK A01 T10331040  RH  095%=      5-min Rain = 0
KME1 200814Z 00000KT M03/M04 A3035 RMK A01 T10321039  RH  095%=      5-min Rain = 0
KME1 200815Z 00000KT M03/M04 A3035 RMK A01 T10311038  RH  095%=      5-min Rain = 0
KME1 200816Z 00000KT M03/M04 A3035 RMK A01 T10301037  RH  095%=      5-min Rain = 0
KME1 200817Z 00000KT M03/M04 A3035 RMK A01 T10301037  RH  095%=      5-min Rain = 0
KME1 200818Z 00000KT M03/M04 A3035 RMK A01 T10301036  RH  095%=      5-min Rain = 0
KME1 200819Z 00000KT M03/M04 A3035 RMK A01 T10291035  RH  095%=      5-min Rain = 0
KME1 200820Z 16000KT M03/M04 A3035 RMK A01 T10281035  RH  095%=      5-min Rain = 0
KME1 200821Z 16001KT M03/M04 A3035 RMK A01 T10291036  RH  095%=      5-min Rain = 0
KME1 200822Z 16001KT M03/M04 A3035 RMK A01 T10291036  RH  095%=      5-min Rain = 0
KME1 200823Z 19001KT M03/M04 A3035 RMK A01 T10291036  RH  095%=      5-min Rain = 0
KME1 200824Z 20003KT M03/M04 A3035 RMK A01 T10291036  RH  095%=      5-min Rain = 0
KME1 200825Z 21003KT M03/M04 A3035 RMK A01 T10291037  RH  095%=      5-min Rain = 0
KME1 200826Z 21002KT M03/M04 A3035 RMK A01 T10291037  RH  094%=      5-min Rain = 0
KME1 200827Z 19002KT M03/M04 A3035 RMK A01 T10301039  RH  094%=      5-min Rain = 0
KME1 200828Z 21002KT M03/M04 A3035 RMK A01 T10311040  RH  094%=      5-min Rain = 0
KME1 200829Z 21003KT M03/M04 A3035 RMK A01 T10311040  RH  094%=      5-min Rain = 0
KME1 200830Z 22003KT M03/M04 A3035 RMK A01 T10321040  RH  094%=      5-min Rain = 0
KME1 200831Z 23002KT M03/M04 A3035 RMK A01 T10321040  RH  094%=      5-min Rain = 0
KME1 200832Z 23002KT M03/M04 A3035 RMK A01 T10311039  RH  094%=      5-min Rain = 0
KME1 200833Z 23001KT M03/M04 A3035 RMK A01 T10311039  RH  094%=      5-min Rain = 0
KME1 200834Z 23001KT M03/M04 A3035 RMK A01 T10301038  RH  094%=      5-min Rain = 0
KME1 200835Z 23001KT M03/M04 A3035 RMK A01 T10311039  RH  094%=      5-min Rain = 0
KME1 200836Z 20001KT M03/M04 A3035 RMK A01 T10311039  RH  094%=      5-min Rain = 0
KME1 200837Z 21002KT M03/M04 A3035 RMK A01 T10301038  RH  094%=      5-min Rain = 0
KME1 200838Z 21001KT M03/M04 A3035 RMK A01 T10311039  RH  094%=      5-min Rain = 0
KME1 200839Z 21001KT M03/M04 A3035 RMK A01 T10321041  RH  093%=      5-min Rain = 0
KME1 200840Z 00000KT M03/M04 A3035 RMK A01 T10321042  RH  093%=      5-min Rain = 0
KME1 200841Z 00000KT M03/M04 A3035 RMK A01 T10331042  RH  093%=      5-min Rain = 0
KME1 200842Z 00000KT M03/M04 A3035 RMK A01 T10331043  RH  093%=      5-min Rain = 0
KME1 200843Z 00000KT M03/M04 A3035 RMK A01 T10341043  RH  093%=      5-min Rain = 0
KME1 200844Z 00000KT M03/M04 A3035 RMK A01 T10341043  RH  093%=      5-min Rain = 0
KME1 200845Z 00000KT M03/M04 A3035 RMK A01 T10331042  RH  094%=      5-min Rain = 0
KME1 200846Z 21000KT M03/M04 A3035 RMK A01 T10341043  RH  094%=      5-min Rain = 0
KME1 200847Z 21000KT M03/M04 A3035 RMK A01 T10341043  RH  094%=      5-min Rain = 0
KME1 200848Z 21000KT M03/M04 A3035 RMK A01 T10341043  RH  094%=      5-min Rain = 0
KME1 200849Z 21001KT M03/M04 A3035 RMK A01 T10341042  RH  094%=      5-min Rain = 0
KME1 200850Z 21002KT M03/M04 A3035 RMK A01 T10331041  RH  094%=      5-min Rain = 0
KME1 200851Z 21003KT M03/M04 A3035 RMK A01 T10331041  RH  094%=      5-min Rain = 0
KME1 200852Z 21003KT M03/M04 A3035 RMK A01 T10331040  RH  095%=      5-min Rain = 0
KME1 200853Z 20003KT M03/M04 A3035 RMK A01 T10321039  RH  095%=      5-min Rain = 0
KME1 200854Z 21002KT M03/M04 A3035 RMK A01 T10311038  RH  095%=      5-min Rain = 0
KME1 200855Z 20002KT M03/M04 A3035 RMK A01 T10321039  RH  095%=      5-min Rain = 0
KME1 200856Z 20002KT M03/M04 A3035 RMK A01 T10331042  RH  094%=      5-min Rain = 0
KME1 200857Z 20002KT M04/M04 A3035 RMK A01 T10351044  RH  093%=      5-min Rain = 0
KME1 200858Z 21003KT M04/M05 A3035 RMK A01 T10361045  RH  093%=      5-min Rain = 0
KME1 200859Z 21004KT M04/M05 A3035 RMK A01 T10361045  RH  093%=      5-min Rain = 0
KME1 200900Z 21005KT M04/M05 A3035 RMK A01 T10361045  RH  094%=      5-min Rain = 0
KME1 200901Z 20005KT M04/M05 A3035 RMK A01 T10371045  RH  094%=      5-min Rain = 0
KME1 200902Z 20005KT M04/M04 A3035 RMK A01 T10361044  RH  094%=      5-min Rain = 0
KME1 200903Z 20005KT M04/M04 A3036 RMK A01 T10351042  RH  095%=      5-min Rain = 0
KME1 200904Z 19003KT M04/M04 A3036 RMK A01 T10351042  RH  095%=      5-min Rain = 0
KME1 200905Z 19003KT M03/M04 A3035 RMK A01 T10341043  RH  094%=      5-min Rain = 0
KME1 200906Z 18002KT M03/M04 A3035 RMK A01 T10341043  RH  094%=      5-min Rain = 0
KME1 200907Z 17002KT M03/M04 A3035 RMK A01 T10341042  RH  094%=      5-min Rain = 0
KME1 200908Z 17002KT M03/M04 A3035 RMK A01 T10331041  RH  094%=      5-min Rain = 0
KME1 200909Z 17002KT M03/M04 A3035 RMK A01 T10331040  RH  094%=      5-min Rain = 0
KME1 200910Z 17002KT M03/M04 A3035 RMK A01 T10321040  RH  094%=      5-min Rain = 0
KME1 200911Z 18002KT M03/M04 A3036 RMK A01 T10321039  RH  094%=      5-min Rain = 0
KME1 200912Z 17002KT M03/M04 A3036 RMK A01 T10321040  RH  094%=      5-min Rain = 0
KME1 200913Z 16002KT M03/M04 A3035 RMK A01 T10311040  RH  094%=      5-min Rain = 0
KME1 200914Z 16002KT M03/M04 A3035 RMK A01 T10321041  RH  094%=      5-min Rain = 0
KME1 200915Z 17002KT M03/M04 A3035 RMK A01 T10321041  RH  093%=      5-min Rain = 0
KME1 200916Z 16001KT M03/M04 A3035 RMK A01 T10311041  RH  093%=      5-min Rain = 0
KME1 200917Z 17002KT M03/M04 A3035 RMK A01 T10311041  RH  093%=      5-min Rain = 0
KME1 200918Z 16001KT M03/M04 A3035 RMK A01 T10311041  RH  093%=      5-min Rain = 0
KME1 200919Z 17001KT M03/M04 A3035 RMK A01 T10311041  RH  093%=      5-min Rain = 0
KME1 200920Z 18002KT M03/M04 A3035 RMK A01 T10311040  RH  093%=      5-min Rain = 0
KME1 200921Z 19002KT M03/M04 A3035 RMK A01 T10301039  RH  094%=      5-min Rain = 0
KME1 200922Z 19002KT M03/M04 A3036 RMK A01 T10301039  RH  093%=      5-min Rain = 0
KME1 200923Z 19002KT M03/M04 A3036 RMK A01 T10301039  RH  093%=      5-min Rain = 0
KME1 200924Z 19002KT M03/M04 A3035 RMK A01 T10291038  RH  094%=      5-min Rain = 0
KME1 200925Z 20002KT M03/M04 A3035 RMK A01 T10291038  RH  094%=      5-min Rain = 0
KME1 200926Z 21002KT M03/M04 A3035 RMK A01 T10291038  RH  094%=      5-min Rain = 0
KME1 200927Z 21003KT M03/M04 A3035 RMK A01 T10291038  RH  093%=      5-min Rain = 0
KME1 200928Z 20002KT M03/M04 A3035 RMK A01 T10291038  RH  093%=      5-min Rain = 0
KME1 200929Z 19001KT M03/M04 A3035 RMK A01 T10291038  RH  093%=      5-min Rain = 0
KME1 200930Z 16001KT M03/M04 A3035 RMK A01 T10291038  RH  094%=      5-min Rain = 0
KME1 200931Z 16001KT M03/M04 A3035 RMK A01 T10291037  RH  094%=      5-min Rain = 0
KME1 200932Z 16001KT M03/M04 A3036 RMK A01 T10281035  RH  094%=      5-min Rain = 0
KME1 200933Z 16001KT M03/M03 A3036 RMK A01 T10271034  RH  095%=      5-min Rain = 0
KME1 200934Z 17002KT M03/M03 A3036 RMK A01 T10261033  RH  095%=      5-min Rain = 0
KME1 200935Z 17002KT M03/M03 A3036 RMK A01 T10251033  RH  095%=      5-min Rain = 0
KME1 200936Z 17001KT M03/M03 A3035 RMK A01 T10261034  RH  094%=      5-min Rain = 0
KME1 200937Z 15001KT M03/M03 A3035 RMK A01 T10261034  RH  094%=      5-min Rain = 0
KME1 200938Z 15000KT M03/M04 A3035 RMK A01 T10281039  RH  093%=      5-min Rain = 0
KME1 200939Z 00000KT M03/M04 A3035 RMK A01 T10311043  RH  092%=      5-min Rain = 0
KME1 200940Z 00000KT M03/M05 A3035 RMK A01 T10331045  RH  092%=      5-min Rain = 0
KME1 200941Z 15000KT M03/M05 A3035 RMK A01 T10341046  RH  092%=      5-min Rain = 0
KME1 200942Z 00000KT M04/M05 A3036 RMK A01 T10351047  RH  092%=      5-min Rain = 0
KME1 200943Z 00000KT M04/M05 A3035 RMK A01 T10361048  RH  092%=      5-min Rain = 0
KME1 200944Z 00000KT M04/M05 A3035 RMK A01 T10371049  RH  092%=      5-min Rain = 0
KME1 200945Z 00000KT M04/M05 A3035 RMK A01 T10381050  RH  092%=      5-min Rain = 0
KME1 200946Z 00000KT M04/M05 A3035 RMK A01 T10381049  RH  092%=      5-min Rain = 0
KME1 200947Z 00000KT M04/M05 A3035 RMK A01 T10391049  RH  092%=      5-min Rain = 0
KME1 200948Z 00000KT M04/M05 A3035 RMK A01 T10391049  RH  093%=      5-min Rain = 0
KME1 200949Z 00000KT M04/M05 A3035 RMK A01 T10391049  RH  093%=      5-min Rain = 0
KME1 200950Z 00000KT M04/M05 A3035 RMK A01 T10391049  RH  093%=      5-min Rain = 0
KME1 200951Z 00000KT M04/M05 A3035 RMK A01 T10391049  RH  093%=      5-min Rain = 0
KME1 200952Z 00000KT M04/M05 A3035 RMK A01 T10401050  RH  093%=      5-min Rain = 0
KME1 200953Z 00000KT M04/M05 A3035 RMK A01 T10411051  RH  093%=      5-min Rain = 0
KME1 200954Z 00000KT M04/M05 A3035 RMK A01 T10411051  RH  093%=      5-min Rain = 0
KME1 200955Z 00000KT M04/M05 A3035 RMK A01 T10411051  RH  093%=      5-min Rain = 0
KME1 200956Z 00000KT M04/M05 A3035 RMK A01 T10411049  RH  094%=      5-min Rain = 0
KME1 200957Z 00000KT M04/M05 A3035 RMK A01 T10391048  RH  094%=      5-min Rain = 0
KME1 200958Z 00000KT M04/M05 A3035 RMK A01 T10391047  RH  094%=      5-min Rain = 0
KME1 200959Z 00000KT M04/M05 A3035 RMK A01 T10391047  RH  094%=      5-min Rain = 0
KME1 201000Z 00000KT M04/M05 A3035 RMK A01 T10381045  RH  095%=      5-min Rain = 0
KME1 201001Z 17000KT M04/M04 A3035 RMK A01 T10371043  RH  096%=      5-min Rain = 0
KME1 201002Z 17001KT M04/M04 A3035 RMK A01 T10351040  RH  096%=      5-min Rain = 0
KME1 201003Z 17000KT M03/M04 A3035 RMK A01 T10341038  RH  097%=      5-min Rain = 0
KME1 201004Z 17001KT M03/M04 A3035 RMK A01 T10321036  RH  097%=      5-min Rain = 0
KME1 201005Z 17001KT M03/M04 A3035 RMK A01 T10321036  RH  097%=      5-min Rain = 0
KME1 201006Z 17000KT M03/M04 A3035 RMK A01 T10311035  RH  097%=      5-min Rain = 0
KME1 201007Z 18001KT M03/M04 A3035 RMK A01 T10311036  RH  096%=      5-min Rain = 0
KME1 201008Z 18001KT M03/M04 A3035 RMK A01 T10311037  RH  096%=      5-min Rain = 0
KME1 201009Z 15001KT M03/M04 A3035 RMK A01 T10311037  RH  096%=      5-min Rain = 0
KME1 201010Z 16001KT M03/M04 A3035 RMK A01 T10311037  RH  096%=      5-min Rain = 0
KME1 201011Z 17001KT M03/M04 A3034 RMK A01 T10311037  RH  096%=      5-min Rain = 0
KME1 201012Z 18001KT M03/M04 A3034 RMK A01 T10311037  RH  095%=      5-min Rain = 0
KME1 201013Z 17001KT M03/M04 A3034 RMK A01 T10311037  RH  095%=      5-min Rain = 0
KME1 201014Z 16001KT M03/M04 A3034 RMK A01 T10301037  RH  095%=      5-min Rain = 0
KME1 201015Z 16000KT M03/M04 A3034 RMK A01 T10301037  RH  095%=      5-min Rain = 0
KME1 201016Z 17000KT M03/M04 A3035 RMK A01 T10291036  RH  095%=      5-min Rain = 0
KME1 201017Z 00000KT M03/M04 A3035 RMK A01 T10281035  RH  095%=      5-min Rain = 0
KME1 201018Z 00000KT M03/M04 A3035 RMK A01 T10271035  RH  095%=      5-min Rain = 0
KME1 201019Z 20000KT M03/M04 A3035 RMK A01 T10291039  RH  093%=      5-min Rain = 0
KME1 201020Z 22001KT M03/M04 A3035 RMK A01 T10311041  RH  093%=      5-min Rain = 0
KME1 201021Z 22001KT M03/M04 A3035 RMK A01 T10311041  RH  093%=      5-min Rain = 0
KME1 201022Z 22001KT M03/M04 A3035 RMK A01 T10311041  RH  093%=      5-min Rain = 0
KME1 201023Z 22001KT M03/M04 A3035 RMK A01 T10311041  RH  093%=      5-min Rain = 0
KME1 201024Z 22001KT M03/M04 A3035 RMK A01 T10321042  RH  093%=      5-min Rain = 0
KME1 201025Z 21001KT M03/M04 A3035 RMK A01 T10321042  RH  093%=      5-min Rain = 0
KME1 201026Z 20001KT M03/M04 A3035 RMK A01 T10321041  RH  093%=      5-min Rain = 0
KME1 201027Z 20001KT M03/M04 A3035 RMK A01 T10321042  RH  093%=      5-min Rain = 0
KME1 201028Z 20000KT M03/M04 A3035 RMK A01 T10321042  RH  093%=      5-min Rain = 0
KME1 201029Z 19000KT M03/M04 A3035 RMK A01 T10331043  RH  093%=      5-min Rain = 0
KME1 201030Z 17001KT M03/M04 A3035 RMK A01 T10331043  RH  093%=      5-min Rain = 0
KME1 201031Z 17001KT M03/M04 A3035 RMK A01 T10341044  RH  093%=      5-min Rain = 0
KME1 201032Z 18001KT M04/M05 A3035 RMK A01 T10351045  RH  093%=      5-min Rain = 0
KME1 201033Z 20001KT M04/M05 A3035 RMK A01 T10351045  RH  093%=      5-min Rain = 0
KME1 201034Z 21001KT M04/M05 A3035 RMK A01 T10361046  RH  093%=      5-min Rain = 0
KME1 201035Z 21001KT M04/M05 A3035 RMK A01 T10361046  RH  093%=      5-min Rain = 0
KME1 201036Z 20001KT M04/M05 A3035 RMK A01 T10371046  RH  093%=      5-min Rain = 0
KME1 201037Z 19002KT M04/M05 A3035 RMK A01 T10371047  RH  093%=      5-min Rain = 0
KME1 201038Z 20002KT M04/M05 A3035 RMK A01 T10371047  RH  093%=      5-min Rain = 0
KME1 201039Z 20002KT M04/M05 A3035 RMK A01 T10371047  RH  093%=      5-min Rain = 0
KME1 201040Z 20002KT M04/M05 A3035 RMK A01 T10371047  RH  093%=      5-min Rain = 0
KME1 201041Z 20002KT M04/M05 A3035 RMK A01 T10381047  RH  093%=      5-min Rain = 0
KME1 201042Z 20002KT M04/M05 A3035 RMK A01 T10371046  RH  093%=      5-min Rain = 0
KME1 201043Z 20002KT M04/M05 A3035 RMK A01 T10371046  RH  093%=      5-min Rain = 0
KME1 201044Z 20002KT M04/M05 A3035 RMK A01 T10381047  RH  093%=      5-min Rain = 0
KME1 201045Z 21002KT M04/M05 A3035 RMK A01 T10381047  RH  093%=      5-min Rain = 0
KME1 201046Z 21003KT M04/M05 A3035 RMK A01 T10381047  RH  094%=      5-min Rain = 0
KME1 201047Z 21003KT M04/M05 A3035 RMK A01 T10381047  RH  094%=      5-min Rain = 0
KME1 201048Z 21003KT M04/M05 A3034 RMK A01 T10381047  RH  094%=      5-min Rain = 0
KME1 201049Z 21003KT M04/M05 A3034 RMK A01 T10381047  RH  094%=      5-min Rain = 0
KME1 201050Z 21003KT M04/M05 A3034 RMK A01 T10391047  RH  094%=      5-min Rain = 0
KME1 201051Z 21003KT M04/M05 A3035 RMK A01 T10391047  RH  094%=      5-min Rain = 0
KME1 201052Z 21003KT M04/M05 A3035 RMK A01 T10391048  RH  094%=      5-min Rain = 0
KME1 201053Z 21003KT M04/M05 A3035 RMK A01 T10381046  RH  095%=      5-min Rain = 0
KME1 201054Z 21003KT M04/M04 A3035 RMK A01 T10361043  RH  095%=      5-min Rain = 0
KME1 201055Z 21003KT M04/M04 A3035 RMK A01 T10351042  RH  095%=      5-min Rain = 0
KME1 201056Z 21003KT M04/M04 A3035 RMK A01 T10351042  RH  095%=      5-min Rain = 0
KME1 201057Z 21003KT M04/M04 A3035 RMK A01 T10361044  RH  094%=      5-min Rain = 0
KME1 201058Z 21003KT M04/M05 A3035 RMK A01 T10381047  RH  093%=      5-min Rain = 0
KME1 201059Z 20003KT M04/M05 A3035 RMK A01 T10391049  RH  093%=      5-min Rain = 0
KME1 201100Z 20003KT M04/M05 A3034 RMK A01 T10401050  RH  093%=      5-min Rain = 0
KME1 201101Z 19003KT M04/M05 A3034 RMK A01 T10411051  RH  093%=      5-min Rain = 0
KME1 201102Z 19002KT M04/M05 A3034 RMK A01 T10411052  RH  093%=      5-min Rain = 0
KME1 201103Z 19002KT M04/M05 A3034 RMK A01 T10421052  RH  093%=      5-min Rain = 0
KME1 201104Z 19002KT M04/M05 A3034 RMK A01 T10421052  RH  093%=      5-min Rain = 0
KME1 201105Z 20002KT M04/M05 A3034 RMK A01 T10421052  RH  093%=      5-min Rain = 0
KME1 201106Z 20002KT M04/M05 A3034 RMK A01 T10421051  RH  093%=      5-min Rain = 0
KME1 201107Z 20002KT M04/M05 A3034 RMK A01 T10421051  RH  094%=      5-min Rain = 0
KME1 201108Z 20002KT M04/M05 A3034 RMK A01 T10411050  RH  094%=      5-min Rain = 0
KME1 201109Z 20001KT M04/M05 A3034 RMK A01 T10411050  RH  094%=      5-min Rain = 0
KME1 201110Z 19002KT M04/M05 A3034 RMK A01 T10411049  RH  094%=      5-min Rain = 0
KME1 201111Z 18002KT M04/M05 A3034 RMK A01 T10411049  RH  094%=      5-min Rain = 0
KME1 201112Z 18002KT M04/M05 A3034 RMK A01 T10411050  RH  094%=      5-min Rain = 0
KME1 201113Z 18002KT M04/M05 A3034 RMK A01 T10421050  RH  094%=      5-min Rain = 0
KME1 201114Z 18001KT M04/M05 A3034 RMK A01 T10421051  RH  094%=      5-min Rain = 0
KME1 201115Z 18001KT M04/M05 A3034 RMK A01 T10421051  RH  094%=      5-min Rain = 0
KME1 201116Z 18001KT M04/M05 A3034 RMK A01 T10421051  RH  094%=      5-min Rain = 0
KME1 201117Z 19001KT M04/M05 A3034 RMK A01 T10421051  RH  094%=      5-min Rain = 0
KME1 201118Z 19001KT M04/M05 A3034 RMK A01 T10421050  RH  094%=      5-min Rain = 0
KME1 201119Z 20001KT M04/M05 A3034 RMK A01 T10411048  RH  095%=      5-min Rain = 0
KME1 201120Z 20000KT M04/M05 A3034 RMK A01 T10401047  RH  095%=      5-min Rain = 0
KME1 201121Z 00000KT M04/M05 A3034 RMK A01 T10391046  RH  095%=      5-min Rain = 0
KME1 201122Z 20000KT M04/M05 A3034 RMK A01 T10391046  RH  095%=      5-min Rain = 0
KME1 201123Z 20001KT M04/M05 A3034 RMK A01 T10391046  RH  095%=      5-min Rain = 0
KME1 201124Z 20001KT M04/M05 A3034 RMK A01 T10391046  RH  095%=      5-min Rain = 0
KME1 201125Z 20001KT M04/M05 A3034 RMK A01 T10391046  RH  095%=      5-min Rain = 0
KME1 201126Z 20001KT M04/M05 A3034 RMK A01 T10381045  RH  095%=      5-min Rain = 0
KME1 201127Z 00000KT M04/M05 A3034 RMK A01 T10391045  RH  095%=      5-min Rain = 0
KME1 201128Z 00000KT M04/M05 A3034 RMK A01 T10391046  RH  095%=      5-min Rain = 0
KME1 201129Z 00000KT M04/M05 A3034 RMK A01 T10391047  RH  094%=      5-min Rain = 0
KME1 201130Z 00000KT M04/M05 A3034 RMK A01 T10411051  RH  093%=      5-min Rain = 0
KME1 201131Z 00000KT M04/M05 A3034 RMK A01 T10431053  RH  093%=      5-min Rain = 0
KME1 201132Z 00000KT M04/M05 A3034 RMK A01 T10441054  RH  093%=      5-min Rain = 0
KME1 201133Z 00000KT M04/M05 A3034 RMK A01 T10441054  RH  093%=      5-min Rain = 0
KME1 201134Z 00000KT M04/M05 A3034 RMK A01 T10441054  RH  093%=      5-min Rain = 0
KME1 201135Z 17001KT M04/M05 A3034 RMK A01 T10441054  RH  093%=      5-min Rain = 0
KME1 201136Z 17001KT M04/M05 A3034 RMK A01 T10441053  RH  093%=      5-min Rain = 0
KME1 201137Z 17001KT M04/M05 A3034 RMK A01 T10441052  RH  094%=      5-min Rain = 0
KME1 201138Z 17001KT M04/M05 A3034 RMK A01 T10431051  RH  094%=      5-min Rain = 0
KME1 201139Z 17000KT M04/M05 A3034 RMK A01 T10411049  RH  095%=      5-min Rain = 0
KME1 201140Z 00000KT M04/M05 A3034 RMK A01 T10401047  RH  095%=      5-min Rain = 0
KME1 201141Z 00000KT M04/M05 A3034 RMK A01 T10401047  RH  095%=      5-min Rain = 0
KME1 201142Z 00000KT M04/M05 A3034 RMK A01 T10391046  RH  095%=      5-min Rain = 0
KME1 201143Z 16000KT M04/M05 A3034 RMK A01 T10391046  RH  095%=      5-min Rain = 0
KME1 201144Z 16000KT M04/M05 A3034 RMK A01 T10391046  RH  095%=      5-min Rain = 0
KME1 201145Z 16000KT M04/M05 A3034 RMK A01 T10391047  RH  094%=      5-min Rain = 0
KME1 201146Z 16001KT M04/M05 A3034 RMK A01 T10391047  RH  094%=      5-min Rain = 0
KME1 201147Z 16001KT M04/M05 A3034 RMK A01 T10381045  RH  095%=      5-min Rain = 0
KME1 201148Z 16001KT M04/M04 A3034 RMK A01 T10371044  RH  095%=      5-min Rain = 0
KME1 201149Z 16001KT M04/M04 A3034 RMK A01 T10361043  RH  095%=      5-min Rain = 0
KME1 201150Z 14001KT M04/M04 A3034 RMK A01 T10351042  RH  095%=      5-min Rain = 0
KME1 201151Z 13001KT M04/M04 A3034 RMK A01 T10351042  RH  095%=      5-min Rain = 0
KME1 201152Z 12001KT M04/M04 A3034 RMK A01 T10361043  RH  095%=      5-min Rain = 0
KME1 201153Z 12001KT M04/M04 A3034 RMK A01 T10361043  RH  095%=      5-min Rain = 0
KME1 201154Z 12001KT M04/M04 A3034 RMK A01 T10351042  RH  095%=      5-min Rain = 0
KME1 201155Z 12001KT M04/M04 A3034 RMK A01 T10351041  RH  095%=      5-min Rain = 0
KME1 201156Z 12001KT M03/M04 A3034 RMK A01 T10341040  RH  095%=      5-min Rain = 0
KME1 201157Z 12001KT M03/M04 A3034 RMK A01 T10331039  RH  096%=      5-min Rain = 0
KME1 201158Z 12001KT M03/M04 A3034 RMK A01 T10321038  RH  096%=      5-min Rain = 0
KME1 201159Z 15001KT M03/M04 A3034 RMK A01 T10321037  RH  096%=      5-min Rain = 0
KME1 201200Z 16001KT M03/M04 A3034 RMK A01 T10311037  RH  096%=      5-min Rain = 0
KME1 201201Z 15002KT M03/M04 A3034 RMK A01 T10301036  RH  096%=      5-min Rain = 0
KME1 201202Z 15002KT M03/M04 A3034 RMK A01 T10291035  RH  096%=      5-min Rain = 0
KME1 201203Z 16002KT M03/M03 A3034 RMK A01 T10291034  RH  096%=      5-min Rain = 0
KME1 201204Z 16003KT M03/M03 A3034 RMK A01 T10281034  RH  096%=      5-min Rain = 0
KME1 201205Z 17002KT M03/M03 A3034 RMK A01 T10281034  RH  095%=      5-min Rain = 0
KME1 201206Z 18002KT M03/M04 A3034 RMK A01 T10281035  RH  095%=      5-min Rain = 0
KME1 201207Z 19002KT M03/M04 A3034 RMK A01 T10291037  RH  094%=      5-min Rain = 0
KME1 201208Z 20003KT M03/M04 A3034 RMK A01 T10311041  RH  093%=      5-min Rain = 0
KME1 201209Z 20002KT M03/M04 A3034 RMK A01 T10331043  RH  093%=      5-min Rain = 0
KME1 201210Z 20002KT M03/M04 A3034 RMK A01 T10331044  RH  093%=      5-min Rain = 0
KME1 201211Z 20002KT M03/M04 A3034 RMK A01 T10341044  RH  093%=      5-min Rain = 0
KME1 201212Z 20002KT M03/M04 A3034 RMK A01 T10341044  RH  093%=      5-min Rain = 0
KME1 201213Z 20003KT M04/M04 A3034 RMK A01 T10351044  RH  093%=      5-min Rain = 0
KME1 201214Z 20003KT M04/M05 A3034 RMK A01 T10351045  RH  093%=      5-min Rain = 0
KME1 201215Z 20003KT M04/M05 A3034 RMK A01 T10361046  RH  093%=      5-min Rain = 0
KME1 201216Z 19003KT M04/M05 A3034 RMK A01 T10361046  RH  093%=      5-min Rain = 0
KME1 201217Z 19003KT M04/M05 A3034 RMK A01 T10371046  RH  093%=      5-min Rain = 0
KME1 201218Z 19003KT M04/M05 A3034 RMK A01 T10371046  RH  093%=      5-min Rain = 0
KME1 201219Z 20003KT M04/M05 A3034 RMK A01 T10361045  RH  094%=      5-min Rain = 0
KME1 201220Z 20003KT M04/M05 A3034 RMK A01 T10361045  RH  094%=      5-min Rain = 0
KME1 201221Z 20003KT M04/M04 A3034 RMK A01 T10361044  RH  094%=      5-min Rain = 0
KME1 201222Z 21003KT M04/M04 A3034 RMK A01 T10361044  RH  094%=      5-min Rain = 0
KME1 201223Z 21002KT M04/M04 A3034 RMK A01 T10351043  RH  094%=      5-min Rain = 0
KME1 201224Z 21002KT M03/M04 A3034 RMK A01 T10341042  RH  095%=      5-min Rain = 0
KME1 201225Z 21002KT M03/M04 A3034 RMK A01 T10341042  RH  094%=      5-min Rain = 0
KME1 201226Z 21002KT M04/M04 A3034 RMK A01 T10351043  RH  094%=      5-min Rain = 0
KME1 201227Z 21003KT M04/M04 A3034 RMK A01 T10351043  RH  094%=      5-min Rain = 0
KME1 201228Z 21003KT M04/M04 A3034 RMK A01 T10351043  RH  094%=      5-min Rain = 0
KME1 201229Z 21003KT M04/M04 A3034 RMK A01 T10351044  RH  094%=      5-min Rain = 0
KME1 201230Z 21003KT M04/M05 A3034 RMK A01 T10361045  RH  094%=      5-min Rain = 0
KME1 201231Z 21003KT M04/M05 A3034 RMK A01 T10361045  RH  094%=      5-min Rain = 0
KME1 201232Z 21002KT M04/M05 A3034 RMK A01 T10371046  RH  093%=      5-min Rain = 0
KME1 201233Z 21003KT M04/M05 A3034 RMK A01 T10371046  RH  093%=      5-min Rain = 0
KME1 201234Z 21003KT M04/M05 A3034 RMK A01 T10381047  RH  093%=      5-min Rain = 0
KME1 201235Z 21003KT M04/M05 A3034 RMK A01 T10391048  RH  093%=      5-min Rain = 0
KME1 201236Z 21003KT M04/M05 A3034 RMK A01 T10391049  RH  093%=      5-min Rain = 0
KME1 201237Z 21003KT M04/M05 A3034 RMK A01 T10401049  RH  093%=      5-min Rain = 0
KME1 201238Z 20002KT M04/M05 A3034 RMK A01 T10401049  RH  094%=      5-min Rain = 0
KME1 201239Z 21002KT M04/M05 A3034 RMK A01 T10401048  RH  094%=      5-min Rain = 0
KME1 201240Z 21002KT M04/M05 A3035 RMK A01 T10401048  RH  094%=      5-min Rain = 0
KME1 201241Z 21002KT M04/M05 A3035 RMK A01 T10401048  RH  094%=      5-min Rain = 0
KME1 201242Z 22003KT M04/M05 A3035 RMK A01 T10401049  RH  094%=      5-min Rain = 0
KME1 201243Z 22003KT M04/M05 A3034 RMK A01 T10401049  RH  094%=      5-min Rain = 0
KME1 201244Z 21003KT M04/M05 A3034 RMK A01 T10401048  RH  094%=      5-min Rain = 0
KME1 201245Z 21002KT M04/M05 A3034 RMK A01 T10401047  RH  095%=      5-min Rain = 0
KME1 201246Z 21002KT M04/M05 A3034 RMK A01 T10391046  RH  095%=      5-min Rain = 0
KME1 201247Z 21001KT M04/M05 A3035 RMK A01 T10391046  RH  095%=      5-min Rain = 0
KME1 201248Z 21000KT M04/M05 A3035 RMK A01 T10391046  RH  095%=      5-min Rain = 0
KME1 201249Z 00000KT M04/M05 A3035 RMK A01 T10391046  RH  095%=      5-min Rain = 0
KME1 201250Z 23000KT M04/M05 A3035 RMK A01 T10391046  RH  095%=      5-min Rain = 0
KME1 201251Z 24001KT M04/M05 A3035 RMK A01 T10391046  RH  095%=      5-min Rain = 0
KME1 201252Z 23002KT M04/M05 A3035 RMK A01 T10391046  RH  095%=      5-min Rain = 0
KME1 201253Z 23002KT M04/M05 A3035 RMK A01 T10391046  RH  095%=      5-min Rain = 0
KME1 201254Z 23002KT M04/M04 A3035 RMK A01 T10371043  RH  095%=      5-min Rain = 0
KME1 201255Z 23002KT M04/M04 A3035 RMK A01 T10361043  RH  095%=      5-min Rain = 0
KME1 201256Z 23002KT M04/M04 A3035 RMK A01 T10361042  RH  095%=      5-min Rain = 0
KME1 201257Z 23002KT M04/M04 A3035 RMK A01 T10361043  RH  095%=      5-min Rain = 0
KME1 201258Z 23002KT M04/M04 A3035 RMK A01 T10361044  RH  094%=      5-min Rain = 0
KME1 201259Z 23002KT M04/M05 A3035 RMK A01 T10391049  RH  093%=      5-min Rain = 0
KME1 201300Z 23002KT M04/M05 A3035 RMK A01 T10401051  RH  093%=      5-min Rain = 0
KME1 201301Z 24001KT M04/M05 A3035 RMK A01 T10401051  RH  093%=      5-min Rain = 0
KME1 201302Z 24002KT M04/M05 A3035 RMK A01 T10411051  RH  093%=      5-min Rain = 0
KME1 201303Z 24002KT M04/M05 A3035 RMK A01 T10421052  RH  093%=      5-min Rain = 0
KME1 201304Z 23003KT M04/M05 A3035 RMK A01 T10421052  RH  093%=      5-min Rain = 0
KME1 201305Z 22003KT M04/M05 A3035 RMK A01 T10411051  RH  093%=      5-min Rain = 0
KME1 201306Z 22002KT M04/M05 A3035 RMK A01 T10411051  RH  093%=      5-min Rain = 0
KME1 201307Z 21002KT M04/M05 A3035 RMK A01 T10421051  RH  093%=      5-min Rain = 0
KME1 201308Z 20001KT M04/M05 A3035 RMK A01 T10411049  RH  094%=      5-min Rain = 0
KME1 201309Z 19000KT M04/M05 A3035 RMK A01 T10421051  RH  093%=      5-min Rain = 0
KME1 201310Z 06000KT M05/M06 A3035 RMK A01 T10461058  RH  091%=      5-min Rain = 0
KME1 201311Z 05000KT M05/M06 A3035 RMK A01 T10481061  RH  091%=      5-min Rain = 0
KME1 201312Z 17000KT M05/M06 A3035 RMK A01 T10501062  RH  091%=      5-min Rain = 0
KME1 201313Z 19001KT M05/M06 A3035 RMK A01 T10501062  RH  091%=      5-min Rain = 0
KME1 201314Z 19001KT M05/M06 A3035 RMK A01 T10491059  RH  092%=      5-min Rain = 0
KME1 201315Z 19002KT M05/M06 A3035 RMK A01 T10471056  RH  093%=      5-min Rain = 0
KME1 201316Z 19002KT M05/M06 A3035 RMK A01 T10461055  RH  093%=      5-min Rain = 0
KME1 201317Z 19002KT M04/M05 A3035 RMK A01 T10441053  RH  094%=      5-min Rain = 0
KME1 201318Z 19002KT M04/M05 A3035 RMK A01 T10441053  RH  094%=      5-min Rain = 0
KME1 201319Z 18001KT M04/M05 A3034 RMK A01 T10441054  RH  093%=      5-min Rain = 0
KME1 201320Z 17001KT M05/M06 A3034 RMK A01 T10451055  RH  093%=      5-min Rain = 0
KME1 201321Z 17001KT M05/M06 A3034 RMK A01 T10451055  RH  093%=      5-min Rain = 0
KME1 201322Z 17000KT M05/M06 A3034 RMK A01 T10451055  RH  093%=      5-min Rain = 0
KME1 201323Z 00000KT M05/M06 A3034 RMK A01 T10451056  RH  093%=      5-min Rain = 0
KME1 201324Z 00000KT M05/M06 A3034 RMK A01 T10451056  RH  093%=      5-min Rain = 0
KME1 201325Z 00000KT M05/M06 A3034 RMK A01 T10461056  RH  093%=      5-min Rain = 0
KME1 201326Z 17000KT M05/M06 A3034 RMK A01 T10461056  RH  093%=      5-min Rain = 0
KME1 201327Z 17001KT M05/M06 A3034 RMK A01 T10461056  RH  093%=      5-min Rain = 0
KME1 201328Z 18001KT M05/M06 A3034 RMK A01 T10461056  RH  093%=      5-min Rain = 0
KME1 201329Z 20002KT M05/M06 A3034 RMK A01 T10461055  RH  093%=      5-min Rain = 0
KME1 201330Z 20003KT M04/M05 A3034 RMK A01 T10441054  RH  093%=      5-min Rain = 0
KME1 201331Z 20003KT M04/M05 A3034 RMK A01 T10441053  RH  093%=      5-min Rain = 0
KME1 201332Z 19002KT M04/M05 A3034 RMK A01 T10441053  RH  093%=      5-min Rain = 0
KME1 201333Z 18001KT M04/M05 A3034 RMK A01 T10441053  RH  093%=      5-min Rain = 0
KME1 201334Z 19001KT M04/M05 A3034 RMK A01 T10441053  RH  093%=      5-min Rain = 0
KME1 201335Z 20002KT M04/M05 A3034 RMK A01 T10441054  RH  093%=      5-min Rain = 0
KME1 201336Z 21002KT M04/M05 A3034 RMK A01 T10441054  RH  093%=      5-min Rain = 0
KME1 201337Z 21002KT M05/M06 A3034 RMK A01 T10451055  RH  093%=      5-min Rain = 0
KME1 201338Z 21002KT M05/M06 A3034 RMK A01 T10451055  RH  093%=      5-min Rain = 0
KME1 201339Z 20003KT M05/M05 A3034 RMK A01 T10451054  RH  093%=      5-min Rain = 0
KME1 201340Z 20003KT M04/M05 A3034 RMK A01 T10441054  RH  093%=      5-min Rain = 0
KME1 201341Z 21003KT M04/M05 A3034 RMK A01 T10441053  RH  093%=      5-min Rain = 0
KME1 201342Z 21003KT M04/M05 A3034 RMK A01 T10441053  RH  093%=      5-min Rain = 0
KME1 201343Z 21003KT M04/M05 A3034 RMK A01 T10441053  RH  093%=      5-min Rain = 0
KME1 201344Z 21003KT M04/M05 A3034 RMK A01 T10441053  RH  093%=      5-min Rain = 0
KME1 201345Z 21003KT M04/M05 A3034 RMK A01 T10441054  RH  093%=      5-min Rain = 0
KME1 201346Z 21003KT M04/M05 A3034 RMK A01 T10441054  RH  093%=      5-min Rain = 0
KME1 201347Z 21003KT M04/M05 A3034 RMK A01 T10441053  RH  093%=      5-min Rain = 0
KME1 201348Z 21003KT M04/M05 A3034 RMK A01 T10441054  RH  093%=      5-min Rain = 0
KME1 201349Z 21003KT M04/M05 A3034 RMK A01 T10441054  RH  093%=      5-min Rain = 0
KME1 201350Z 20003KT M04/M05 A3034 RMK A01 T10441053  RH  093%=      5-min Rain = 0
KME1 201351Z 21003KT M04/M05 A3034 RMK A01 T10431053  RH  093%=      5-min Rain = 0
KME1 201352Z 20003KT M04/M05 A3034 RMK A01 T10421052  RH  093%=      5-min Rain = 0
KME1 201353Z 19002KT M04/M05 A3034 RMK A01 T10411051  RH  093%=      5-min Rain = 0
KME1 201354Z 18002KT M04/M05 A3034 RMK A01 T10411050  RH  093%=      5-min Rain = 0
KME1 201355Z 19002KT M04/M05 A3034 RMK A01 T10401050  RH  093%=      5-min Rain = 0
KME1 201356Z 19003KT M04/M05 A3034 RMK A01 T10411051  RH  093%=      5-min Rain = 0
KME1 201357Z 20004KT M04/M05 A3034 RMK A01 T10411052  RH  092%=      5-min Rain = 0
KME1 201358Z 20004KT M04/M05 A3034 RMK A01 T10411052  RH  092%=      5-min Rain = 0
KME1 201359Z 20005KT M04/M05 A3034 RMK A01 T10411051  RH  092%=      5-min Rain = 0
KME1 201400Z 20004KT M04/M05 A3034 RMK A01 T10401050  RH  092%=      5-min Rain = 0
KME1 201401Z 19004KT M04/M05 A3034 RMK A01 T10391049  RH  093%=      5-min Rain = 0
KME1 201402Z 18003KT M04/M05 A3034 RMK A01 T10381049  RH  093%=      5-min Rain = 0
KME1 201403Z 17003KT M04/M05 A3034 RMK A01 T10381048  RH  093%=      5-min Rain = 0
KME1 201404Z 16002KT M04/M05 A3034 RMK A01 T10371047  RH  093%=      5-min Rain = 0
KME1 201405Z 17003KT M04/M05 A3034 RMK A01 T10361047  RH  093%=      5-min Rain = 0
KME1 201406Z 19003KT M04/M05 A3034 RMK A01 T10361046  RH  092%=      5-min Rain = 0
KME1 201407Z 20003KT M04/M05 A3034 RMK A01 T10361046  RH  092%=      5-min Rain = 0
KME1 201408Z 19003KT M04/M05 A3034 RMK A01 T10351046  RH  093%=      5-min Rain = 0
KME1 201409Z 18002KT M04/M05 A3034 RMK A01 T10351045  RH  093%=      5-min Rain = 0
KME1 201410Z 16001KT M03/M04 A3034 RMK A01 T10341044  RH  093%=      5-min Rain = 0
KME1 201411Z 15001KT M03/M04 A3034 RMK A01 T10331044  RH  093%=      5-min Rain = 0
KME1 201412Z 15000KT M03/M05 A3034 RMK A01 T10341045  RH  092%=      5-min Rain = 0
KME1 201413Z 18001KT M03/M05 A3034 RMK A01 T10341045  RH  092%=      5-min Rain = 0
KME1 201414Z 19001KT M03/M05 A3034 RMK A01 T10341045  RH  092%=      5-min Rain = 0
KME1 201415Z 20001KT M03/M05 A3034 RMK A01 T10341045  RH  092%=      5-min Rain = 0
KME1 201416Z 20001KT M03/M05 A3034 RMK A01 T10341045  RH  092%=      5-min Rain = 0
KME1 201417Z 20000KT M03/M04 A3034 RMK A01 T10331044  RH  092%=      5-min Rain = 0
KME1 201418Z 00000KT M03/M04 A3034 RMK A01 T10321043  RH  092%=      5-min Rain = 0
KME1 201419Z 00000KT M03/M04 A3034 RMK A01 T10311042  RH  092%=      5-min Rain = 0
KME1 201420Z 16000KT M03/M04 A3034 RMK A01 T10311041  RH  092%=      5-min Rain = 0
KME1 201421Z 18002KT M03/M04 A3034 RMK A01 T10301040  RH  092%=      5-min Rain = 0
KME1 201422Z 19002KT M03/M04 A3034 RMK A01 T10291040  RH  092%=      5-min Rain = 0
KME1 201423Z 21002KT M03/M04 A3034 RMK A01 T10291040  RH  092%=      5-min Rain = 0
KME1 201424Z 21001KT M03/M04 A3034 RMK A01 T10291040  RH  092%=      5-min Rain = 0
KME1 201425Z 21001KT M03/M04 A3034 RMK A01 T10281039  RH  092%=      5-min Rain = 0
KME1 201426Z 20000KT M03/M04 A3034 RMK A01 T10281039  RH  092%=      5-min Rain = 0
KME1 201427Z 10001KT M03/M04 A3034 RMK A01 T10261037  RH  092%=      5-min Rain = 0
KME1 201428Z 11001KT M02/M04 A3034 RMK A01 T10241036  RH  092%=      5-min Rain = 0
KME1 201429Z 14000KT M02/M04 A3034 RMK A01 T10231036  RH  091%=      5-min Rain = 0
KME1 201430Z 20001KT M02/M04 A3034 RMK A01 T10231036  RH  091%=      5-min Rain = 0
KME1 201431Z 20001KT M02/M04 A3034 RMK A01 T10231037  RH  090%=      5-min Rain = 0
KME1 201432Z 21002KT M02/M04 A3034 RMK A01 T10231038  RH  089%=      5-min Rain = 0
KME1 201433Z 21002KT M02/M04 A3034 RMK A01 T10231038  RH  089%=      5-min Rain = 0
KME1 201434Z 21002KT M02/M04 A3034 RMK A01 T10221036  RH  090%=      5-min Rain = 0
KME1 201435Z 19002KT M02/M04 A3034 RMK A01 T10211037  RH  089%=      5-min Rain = 0
KME1 201436Z 19002KT M02/M04 A3034 RMK A01 T10211036  RH  089%=      5-min Rain = 0
KME1 201437Z 18001KT M02/M04 A3034 RMK A01 T10211037  RH  089%=      5-min Rain = 0
KME1 201438Z 20001KT M02/M04 A3034 RMK A01 T10191036  RH  088%=      5-min Rain = 0
KME1 201439Z 21001KT M02/M04 A3034 RMK A01 T10191037  RH  087%=      5-min Rain = 0
KME1 201440Z 21002KT M02/M04 A3034 RMK A01 T10181037  RH  087%=      5-min Rain = 0
KME1 201441Z 21002KT M02/M04 A3034 RMK A01 T10171036  RH  087%=      5-min Rain = 0
KME1 201442Z 21002KT M02/M04 A3034 RMK A01 T10171036  RH  087%=      5-min Rain = 0
KME1 201443Z 21000KT M02/M04 A3034 RMK A01 T10171036  RH  086%=      5-min Rain = 0
KME1 201444Z 21000KT M02/M03 A3034 RMK A01 T10151034  RH  087%=      5-min Rain = 0
KME1 201445Z 13000KT M01/M03 A3035 RMK A01 T10111030  RH  087%=      5-min Rain = 0
KME1 201446Z 13001KT M01/M03 A3035 RMK A01 T10091030  RH  086%=      5-min Rain = 0
KME1 201447Z 19000KT M01/M03 A3035 RMK A01 T10091031  RH  085%=      5-min Rain = 0
KME1 201448Z 21001KT M01/M03 A3035 RMK A01 T10081032  RH  084%=      5-min Rain = 0
KME1 201449Z 22002KT M01/M03 A3035 RMK A01 T10081033  RH  083%=      5-min Rain = 0
KME1 201450Z 22004KT M01/M03 A3035 RMK A01 T10081034  RH  083%=      5-min Rain = 0
KME1 201451Z 22005KT M01/M03 A3034 RMK A01 T10081033  RH  084%=      5-min Rain = 0
KME1 201452Z 21004KT M01/M03 A3034 RMK A01 T10071031  RH  084%=      5-min Rain = 0
KME1 201453Z 21004KT M01/M03 A3034 RMK A01 T10051029  RH  084%=      5-min Rain = 0
KME1 201454Z 21004KT M00/M03 A3034 RMK A01 T10041028  RH  084%=      5-min Rain = 0
KME1 201455Z 20003KT M00/M03 A3035 RMK A01 T10031027  RH  084%=      5-min Rain = 0
KME1 201456Z 20002KT M00/M03 A3035 RMK A01 T10011026  RH  083%=      5-min Rain = 0
KME1 201457Z 18002KT 00/M03 A3035 RMK A01 T00011026  RH  082%=      5-min Rain = 0
KME1 201458Z 17002KT 00/M03 A3035 RMK A01 T00031028  RH  079%=      5-min Rain = 0
KME1 201459Z 17002KT 01/M03 A3035 RMK A01 T00051030  RH  077%=      5-min Rain = 0
KME1 201500Z 17001KT 01/M03 A3035 RMK A01 T00061032  RH  076%=      5-min Rain = 0
KME1 201501Z 19001KT 01/M03 A3035 RMK A01 T00071031  RH  075%=      5-min Rain = 0
KME1 201502Z 20002KT 01/M03 A3035 RMK A01 T00081031  RH  075%=      5-min Rain = 0
KME1 201503Z 19002KT 01/M03 A3035 RMK A01 T00101031  RH  075%=      5-min Rain = 0
KME1 201504Z 20002KT 01/M03 A3035 RMK A01 T00111032  RH  073%=      5-min Rain = 0
KME1 201505Z 19002KT 01/M03 A3035 RMK A01 T00111033  RH  072%=      5-min Rain = 0
KME1 201506Z 19003KT 01/M03 A3035 RMK A01 T00121032  RH  072%=      5-min Rain = 0
KME1 201507Z 21003KT 01/M03 A3034 RMK A01 T00131030  RH  073%=      5-min Rain = 0
KME1 201508Z 20003KT 01/M03 A3034 RMK A01 T00131032  RH  072%=      5-min Rain = 0
KME1 201509Z 21003KT 01/M03 A3034 RMK A01 T00131032  RH  072%=      5-min Rain = 0
KME1 201510Z 21004KT 01/M03 A3034 RMK A01 T00141030  RH  072%=      5-min Rain = 0
KME1 201511Z 20004KT 02/M03 A3034 RMK A01 T00151032  RH  071%=      5-min Rain = 0
KME1 201512Z 20004KT 02/M03 A3035 RMK A01 T00161032  RH  070%=      5-min Rain = 0
KME1 201513Z 21003KT 02/M03 A3035 RMK A01 T00161034  RH  069%=      5-min Rain = 0
KME1 201514Z 21005KT 02/M03 A3035 RMK A01 T00171033  RH  069%=      5-min Rain = 0
KME1 201515Z 20004KT 02/M04 A3034 RMK A01 T00171036  RH  068%=      5-min Rain = 0
KME1 201516Z 21004KT 02/M04 A3034 RMK A01 T00171035  RH  068%=      5-min Rain = 0
KME1 201517Z 20004KT 02/M04 A3034 RMK A01 T00181035  RH  068%=      5-min Rain = 0
KME1 201518Z 19003KT 02/M03 A3034 RMK A01 T00181032  RH  069%=      5-min Rain = 0
KME1 201519Z 19004KT 02/M03 A3034 RMK A01 T00201030  RH  070%=      5-min Rain = 0
KME1 201520Z 17004KT 02/M03 A3034 RMK A01 T00211030  RH  069%=      5-min Rain = 0
KME1 201521Z 18003KT 02/M03 A3034 RMK A01 T00211032  RH  068%=      5-min Rain = 0
KME1 201522Z 19003KT 02/M03 A3034 RMK A01 T00221030  RH  069%=      5-min Rain = 0
KME1 201523Z 19004KT 02/M03 A3034 RMK A01 T00221032  RH  068%=      5-min Rain = 0
KME1 201524Z 20005KT 02/M04 A3034 RMK A01 T00221035  RH  066%=      5-min Rain = 0
KME1 201525Z 19003KT 02/M04 A3034 RMK A01 T00221035  RH  066%=      5-min Rain = 0
KME1 201526Z 18003KT 02/M03 A3034 RMK A01 T00231032  RH  067%=      5-min Rain = 0
KME1 201527Z 19003KT 02/M03 A3034 RMK A01 T00231034  RH  066%=      5-min Rain = 0
KME1 201528Z 19003KT 02/M03 A3034 RMK A01 T00241033  RH  066%=      5-min Rain = 0
KME1 201529Z 20003KT 03/M03 A3034 RMK A01 T00251031  RH  067%=      5-min Rain = 0
KME1 201530Z 18004KT 03/M03 A3034 RMK A01 T00261033  RH  065%=      5-min Rain = 0
KME1 201531Z 19006KT 03/M03 A3034 RMK A01 T00261034  RH  065%=      5-min Rain = 0
KME1 201532Z 19004KT 03/M04 A3034 RMK A01 T00261036  RH  064%=      5-min Rain = 0
KME1 201533Z 20005KT 03/M04 A3034 RMK A01 T00261036  RH  064%=      5-min Rain = 0
KME1 201534Z 20006KT 03/M04 A3034 RMK A01 T00271035  RH  064%=      5-min Rain = 0
KME1 201535Z 20005KT 03/M04 A3034 RMK A01 T00281036  RH  063%=      5-min Rain = 0
KME1 201536Z 19005KT 03/M03 A3034 RMK A01 T00291031  RH  065%=      5-min Rain = 0
KME1 201537Z 20005KT 03/M04 A3034 RMK A01 T00301035  RH  062%=      5-min Rain = 0
KME1 201538Z 19004KT 03/M04 A3034 RMK A01 T00311035  RH  062%=      5-min Rain = 0
KME1 201539Z 20006KT 03/M03 A3034 RMK A01 T00331030  RH  063%=      5-min Rain = 0
KME1 201540Z 20006KT 04/M03 A3034 RMK A01 T00351029  RH  063%=      5-min Rain = 0
KME1 201541Z 20006KT 04/M03 A3034 RMK A01 T00361032  RH  061%=      5-min Rain = 0
KME1 201542Z 19006KT 04/M03 A3034 RMK A01 T00361033  RH  061%=      5-min Rain = 0
KME1 201543Z 18007KT 04/M04 A3034 RMK A01 T00361036  RH  059%=      5-min Rain = 0
KME1 201544Z 19006KT 04/M04 A3034 RMK A01 T00361038  RH  059%=      5-min Rain = 0
KME1 201545Z 19006KT 04/M04 A3034 RMK A01 T00361038  RH  058%=      5-min Rain = 0
KME1 201546Z 19006KT 04/M04 A3034 RMK A01 T00371037  RH  059%=      5-min Rain = 0
KME1 201547Z 18006KT 04/M04 A3034 RMK A01 T00371037  RH  058%=      5-min Rain = 0
KME1 201548Z 18006KT 04/M03 A3033 RMK A01 T00391033  RH  059%=      5-min Rain = 0
KME1 201549Z 18006KT 04/M03 A3033 RMK A01 T00401034  RH  058%=      5-min Rain = 0
KME1 201550Z 19005KT 04/M03 A3033 RMK A01 T00411032  RH  059%=      5-min Rain = 0
KME1 201551Z 19006KT 04/M03 A3034 RMK A01 T00431030  RH  059%=      5-min Rain = 0
KME1 201552Z 19006KT 04/M03 A3034 RMK A01 T00441030  RH  059%=      5-min Rain = 0
KME1 201553Z 20007KT 05/M03 A3034 RMK A01 T00451029  RH  059%=      5-min Rain = 0
KME1 201554Z 20007KT 05/M03 A3034 RMK A01 T00461034  RH  056%=      5-min Rain = 0
KME1 201555Z 19005KT 05/M03 A3034 RMK A01 T00451034  RH  056%=      5-min Rain = 0
KME1 201556Z 20006KT 05/M03 A3034 RMK A01 T00451034  RH  057%=      5-min Rain = 0
KME1 201557Z 20006KT 05/M04 A3034 RMK A01 T00451036  RH  056%=      5-min Rain = 0
KME1 201558Z 19006KT 04/M04 A3034 RMK A01 T00441037  RH  055%=      5-min Rain = 0
KME1 201559Z 18006KT 05/M03 A3034 RMK A01 T00451034  RH  057%=      5-min Rain = 0
KME1 201600Z 18006KT 05/M03 A3034 RMK A01 T00481029  RH  058%=      5-min Rain = 0
KME1 201601Z 18006KT 05/M03 A3034 RMK A01 T00501028  RH  057%=      5-min Rain = 0
KME1 201602Z 18006KT 05/M03 A3034 RMK A01 T00501030  RH  056%=      5-min Rain = 0
KME1 201603Z 17007KT 05/M03 A3034 RMK A01 T00501032  RH  055%=      5-min Rain = 0
KME1 201604Z 18005KT 05/M03 A3034 RMK A01 T00511032  RH  055%=      5-min Rain = 0
KME1 201605Z 19005KT 05/M03 A3034 RMK A01 T00511028  RH  056%=      5-min Rain = 0
KME1 201606Z 17007KT 05/M03 A3034 RMK A01 T00531029  RH  056%=      5-min Rain = 0
KME1 201607Z 17007KT 05/M03 A3034 RMK A01 T00531030  RH  055%=      5-min Rain = 0
KME1 201608Z 16005KT 05/M03 A3034 RMK A01 T00541029  RH  055%=      5-min Rain = 0
KME1 201609Z 17005KT 06/M03 A3034 RMK A01 T00561026  RH  055%=      5-min Rain = 0
KME1 201610Z 17005KT 06/M03 A3034 RMK A01 T00581026  RH  055%=      5-min Rain = 0
KME1 201611Z 18006KT 06/M03 A3034 RMK A01 T00591027  RH  054%=      5-min Rain = 0
KME1 201612Z 19006KT 06/M03 A3034 RMK A01 T00601027  RH  054%=      5-min Rain = 0
KME1 201613Z 17005KT 06/M03 A3034 RMK A01 T00601025  RH  055%=      5-min Rain = 0
KME1 201614Z 17006KT 06/M02 A3034 RMK A01 T00621023  RH  055%=      5-min Rain = 0
KME1 201615Z 17007KT 06/M02 A3034 RMK A01 T00631024  RH  054%=      5-min Rain = 0
KME1 201616Z 17006KT 06/M03 A3034 RMK A01 T00631026  RH  053%=      5-min Rain = 0
KME1 201617Z 17006KT 06/M03 A3034 RMK A01 T00611029  RH  052%=      5-min Rain = 0
KME1 201618Z 17006KT 06/M03 A3034 RMK A01 T00601027  RH  053%=      5-min Rain = 0
KME1 201619Z 17004KT 06/M02 A3034 RMK A01 T00621024  RH  054%=      5-min Rain = 0
KME1 201620Z 17003KT 07/M02 A3034 RMK A01 T00651020  RH  055%=      5-min Rain = 0
KME1 201621Z 17005KT 07/M02 A3034 RMK A01 T00661022  RH  053%=      5-min Rain = 0
KME1 201622Z 17006KT 07/M02 A3034 RMK A01 T00671022  RH  053%=      5-min Rain = 0
KME1 201623Z 16006KT 07/M02 A3034 RMK A01 T00681022  RH  053%=      5-min Rain = 0
KME1 201624Z 17006KT 07/M02 A3034 RMK A01 T00671024  RH  052%=      5-min Rain = 0
KME1 201625Z 18007KT 07/M02 A3034 RMK A01 T00671024  RH  052%=      5-min Rain = 0
KME1 201626Z 18005KT 07/M02 A3034 RMK A01 T00681022  RH  053%=      5-min Rain = 0
KME1 201627Z 16006KT 07/M02 A3033 RMK A01 T00691020  RH  053%=      5-min Rain = 0
KME1 201628Z 16005KT 07/M02 A3033 RMK A01 T00711018  RH  053%=      5-min Rain = 0
KME1 201629Z 18007KT 07/M02 A3033 RMK A01 T00731015  RH  054%=      5-min Rain = 0
KME1 201630Z 18005KT 08/M02 A3033 RMK A01 T00751017  RH  052%=      5-min Rain = 0
KME1 201631Z 17006KT 08/M02 A3033 RMK A01 T00751019  RH  051%=      5-min Rain = 0
KME1 201632Z 18006KT 07/M02 A3033 RMK A01 T00741019  RH  051%=      5-min Rain = 0
KME1 201633Z 18005KT 07/M02 A3033 RMK A01 T00741021  RH  051%=      5-min Rain = 0
KME1 201634Z 19005KT 07/M02 A3033 RMK A01 T00741020  RH  051%=      5-min Rain = 0
KME1 201635Z 18005KT 07/M02 A3033 RMK A01 T00741020  RH  051%=      5-min Rain = 0
KME1 201636Z 18005KT 08/M02 A3033 RMK A01 T00751019  RH  051%=      5-min Rain = 0
KME1 201637Z 17004KT 08/M02 A3033 RMK A01 T00761018  RH  051%=      5-min Rain = 0
KME1 201638Z 16005KT 08/M02 A3033 RMK A01 T00791015  RH  052%=      5-min Rain = 0
KME1 201639Z 17005KT 08/M02 A3033 RMK A01 T00821015  RH  050%=      5-min Rain = 0
KME1 201640Z 18005KT 08/M02 A3033 RMK A01 T00841017  RH  049%=      5-min Rain = 0
KME1 201641Z 18006KT 09/M02 A3033 RMK A01 T00851018  RH  048%=      5-min Rain = 0
KME1 201642Z 17007KT 09/M02 A3033 RMK A01 T00851018  RH  048%=      5-min Rain = 0
KME1 201643Z 19007KT 09/M02 A3033 RMK A01 T00861018  RH  048%=      5-min Rain = 0
KME1 201644Z 18007KT 09/M02 A3033 RMK A01 T00871018  RH  048%=      5-min Rain = 0
KME1 201645Z 17008KT 09/M02 A3033 RMK A01 T00871018  RH  048%=      5-min Rain = 0
KME1 201646Z 17006KT 09/M02 A3033 RMK A01 T00871018  RH  048%=      5-min Rain = 0
KME1 201647Z 17005KT 09/M02 A3033 RMK A01 T00891015  RH  048%=      5-min Rain = 0
KME1 201648Z 17007KT 09/M01 A3033 RMK A01 T00901014  RH  048%=      5-min Rain = 0
KME1 201649Z 17007KT 09/M02 A3033 RMK A01 T00911015  RH  047%=      5-min Rain = 0
KME1 201650Z 16007KT 09/M01 A3033 RMK A01 T00921011  RH  048%=      5-min Rain = 0
KME1 201651Z 17007KT 09/M01 A3033 RMK A01 T00941012  RH  047%=      5-min Rain = 0
KME1 201652Z 17006KT 09/M01 A3033 RMK A01 T00931014  RH  047%=      5-min Rain = 0
KME1 201653Z 16005KT 09/M01 A3033 RMK A01 T00931014  RH  047%=      5-min Rain = 0
KME1 201654Z 17005KT 09/M02 A3033 RMK A01 T00931015  RH  047%=      5-min Rain = 0
KME1 201655Z 16003KT 09/M01 A3033 RMK A01 T00941014  RH  047%=      5-min Rain = 0
KME1 201656Z 17004KT 10/M01 A3033 RMK A01 T00961011  RH  047%=      5-min Rain = 0
KME1 201657Z 18006KT 10/M01 A3033 RMK A01 T00981010  RH  047%=      5-min Rain = 0
KME1 201658Z 18005KT 10/M01 A3033 RMK A01 T00991011  RH  046%=      5-min Rain = 0
KME1 201659Z 21004KT 10/M01 A3033 RMK A01 T01001012  RH  046%=      5-min Rain = 0
KME1 201700Z 20005KT 10/M01 A3033 RMK A01 T01011013  RH  045%=      5-min Rain = 0
KME1 201701Z 20006KT 10/M01 A3033 RMK A01 T01031012  RH  045%=      5-min Rain = 0
KME1 201702Z 21011KT 11/M01 A3033 RMK A01 T01061009  RH  045%=      5-min Rain = 0
KME1 201703Z 21008KT 11/M01 A3033 RMK A01 T01081010  RH  044%=      5-min Rain = 0
KME1 201704Z 20010KT 11/M01 A3033 RMK A01 T01091011  RH  043%=      5-min Rain = 0
KME1 201705Z 20009KT 11/M01 A3033 RMK A01 T01091013  RH  042%=      5-min Rain = 0
KME1 201706Z 19010KT 11/M01 A3033 RMK A01 T01091010  RH  044%=      5-min Rain = 0
KME1 201707Z 19009KT 11/M01 A3032 RMK A01 T01111008  RH  044%=      5-min Rain = 0
KME1 201708Z 19009KT 11/M01 A3032 RMK A01 T01141008  RH  043%=      5-min Rain = 0
KME1 201709Z 19010KT 12/M01 A3032 RMK A01 T01151007  RH  043%=      5-min Rain = 0
KME1 201710Z 19012KT 12/M01 A3032 RMK A01 T01151011  RH  042%=      5-min Rain = 0
KME1 201711Z 21012KT 11/M01 A3032 RMK A01 T01141012  RH  042%=      5-min Rain = 0
KME1 201712Z 20012KT 11/M01 A3032 RMK A01 T01141012  RH  042%=      5-min Rain = 0
KME1 201713Z 19012KT 11/M01 A3031 RMK A01 T01131010  RH  043%=      5-min Rain = 0
KME1 201714Z 19012KT 11/M01 A3031 RMK A01 T01141011  RH  042%=      5-min Rain = 0
KME1 201715Z 18011KT 11/M01 A3031 RMK A01 T01141010  RH  042%=      5-min Rain = 0
KME1 201716Z 19011KT 12/M01 A3031 RMK A01 T01151009  RH  042%=      5-min Rain = 0
KME1 201717Z 18012KT 12/M01 A3031 RMK A01 T01161009  RH  042%=      5-min Rain = 0
KME1 201718Z 18014KT 12/M01 A3031 RMK A01 T01161010  RH  042%=      5-min Rain = 0
KME1 201719Z 19014KT 12/M01 A3031 RMK A01 T01171011  RH  041%=      5-min Rain = 0
KME1 201720Z 19015KT 12/M01 A3031 RMK A01 T01171011  RH  041%=      5-min Rain = 0
KME1 201721Z 19013KT 12/M01 A3031 RMK A01 T01171011  RH  041%=      5-min Rain = 0
KME1 201722Z 19014KT 12/M01 A3031 RMK A01 T01171011  RH  041%=      5-min Rain = 0
KME1 201723Z 19014KT 12/M01 A3031 RMK A01 T01181011  RH  041%=      5-min Rain = 0
KME1 201724Z 19011KT 12/M01 A3031 RMK A01 T01181008  RH  042%=      5-min Rain = 0
KME1 201725Z 19012KT 12/M01 A3031 RMK A01 T01201008  RH  041%=      5-min Rain = 0
KME1 201726Z 20014KT 12/M01 A3031 RMK A01 T01201010  RH  040%=      5-min Rain = 0
KME1 201727Z 20013KT 12/M01 A3031 RMK A01 T01201011  RH  040%=      5-min Rain = 0
KME1 201728Z 21013KT 12/M01 A3031 RMK A01 T01201010  RH  041%=      5-min Rain = 0
KME1 201729Z 21015KT 12/M01 A3031 RMK A01 T01211010  RH  040%=      5-min Rain = 0
KME1 201730Z 21013KT 12/M01 A3031 RMK A01 T01211010  RH  040%=      5-min Rain = 0
KME1 201731Z 21013KT 12/M01 A3031 RMK A01 T01211009  RH  041%=      5-min Rain = 0
KME1 201732Z 22012KT 12/M01 A3031 RMK A01 T01221009  RH  040%=      5-min Rain = 0
KME1 201733Z 21012KT 12/M01 A3031 RMK A01 T01231007  RH  041%=      5-min Rain = 0
KME1 201734Z 21013KT 12/M01 A3031 RMK A01 T01231009  RH  040%=      5-min Rain = 0
KME1 201735Z 21012KT 12/M01 A3031 RMK A01 T01231009  RH  040%=      5-min Rain = 0
KME1 201736Z 20010G15KT 12/M01 A3031 RMK A01 T01231007  RH  041%=      5-min Rain = 0
KME1 201737Z 21012KT 12/M01 A3031 RMK A01 T01241007  RH  040%=      5-min Rain = 0
KME1 201738Z 20013KT 13/M01 A3031 RMK A01 T01251008  RH  040%=      5-min Rain = 0
KME1 201739Z 20013KT 12/M01 A303 RMK A01 T01241010  RH  039%=      5-min Rain = 0
KME1 201740Z 20010KT 12/M01 A3031 RMK A01 T01221011  RH  040%=      5-min Rain = 0
KME1 201741Z 20012KT 12/M01 A303 RMK A01 T01221010  RH  040%=      5-min Rain = 0
KME1 201742Z 19011KT 12/M01 A303 RMK A01 T01221011  RH  040%=      5-min Rain = 0
KME1 201743Z 19012KT 12/M01 A303 RMK A01 T01231009  RH  040%=      5-min Rain = 0
KME1 201744Z 20014KT 12/M01 A303 RMK A01 T01241009  RH  040%=      5-min Rain = 0
KME1 201745Z 20014KT 12/M01 A303 RMK A01 T01241010  RH  039%=      5-min Rain = 0
KME1 201746Z 20012KT 12/M01 A303 RMK A01 T01241011  RH  039%=      5-min Rain = 0
KME1 201747Z 21012KT 12/M01 A303 RMK A01 T01241008  RH  040%=      5-min Rain = 0
KME1 201748Z 20013KT 13/M01 A303 RMK A01 T01251007  RH  040%=      5-min Rain = 0
KME1 201749Z 20013KT 13/M01 A303 RMK A01 T01261006  RH  040%=      5-min Rain = 0
KME1 201750Z 20013G18KT 13/M01 A303 RMK A01 T01281007  RH  039%=      5-min Rain = 0
KME1 201751Z 21016KT 13/M01 A3029 RMK A01 T01281009  RH  039%=      5-min Rain = 0
KME1 201752Z 20013KT 13/M01 A3029 RMK A01 T01261010  RH  039%=      5-min Rain = 0
KME1 201753Z 20014KT 13/M01 A3029 RMK A01 T01261009  RH  039%=      5-min Rain = 0
KME1 201754Z 19013KT 13/M01 A3029 RMK A01 T01251009  RH  039%=      5-min Rain = 0
KME1 201755Z 19011KT 13/M01 A3029 RMK A01 T01261009  RH  039%=      5-min Rain = 0
KME1 201756Z 19011KT 13/M01 A3029 RMK A01 T01261006  RH  040%=      5-min Rain = 0
KME1 201757Z 21014KT 13/M00 A3029 RMK A01 T01291004  RH  040%=      5-min Rain = 0
KME1 201758Z 21016KT 13/M01 A3029 RMK A01 T01301008  RH  039%=      5-min Rain = 0
KME1 201759Z 21015KT 13/M01 A3029 RMK A01 T01271010  RH  039%=      5-min Rain = 0
KME1 201800Z 21015KT 13/M01 A3029 RMK A01 T01261009  RH  039%=      5-min Rain = 0
KME1 201801Z 21015KT 13/M01 A3029 RMK A01 T01261008  RH  039%=      5-min Rain = 0
KME1 201802Z 21015KT 13/M01 A3028 RMK A01 T01261008  RH  040%=      5-min Rain = 0
KME1 201803Z 22014KT 13/M01 A3028 RMK A01 T01261010  RH  039%=      5-min Rain = 0
KME1 201804Z 21015KT 13/M01 A3028 RMK A01 T01271008  RH  039%=      5-min Rain = 0
KME1 201805Z 19013KT 13/M01 A3028 RMK A01 T01271008  RH  039%=      5-min Rain = 0
KME1 201806Z 20013KT 13/M01 A3028 RMK A01 T01281006  RH  040%=      5-min Rain = 0
KME1 201807Z 19016KT 13/M01 A3028 RMK A01 T01291007  RH  039%=      5-min Rain = 0
KME1 201808Z 20015KT 13/M01 A3028 RMK A01 T01281009  RH  039%=      5-min Rain = 0
KME1 201809Z 20014KT 13/M01 A3028 RMK A01 T01271009  RH  039%=      5-min Rain = 0
KME1 201810Z 20012KT 13/M01 A3028 RMK A01 T01271006  RH  040%=      5-min Rain = 0
KME1 201811Z 19013G19KT 13/M01 A3028 RMK A01 T01291006  RH  039%=      5-min Rain = 0
KME1 201812Z 20015KT 13/M01 A3027 RMK A01 T01291006  RH  039%=      5-min Rain = 0
KME1 201813Z 21016KT 13/M01 A3027 RMK A01 T01291008  RH  039%=      5-min Rain = 0
KME1 201814Z 21013KT 13/M01 A3027 RMK A01 T01291006  RH  039%=      5-min Rain = 0
KME1 201815Z 19015KT 13/M01 A3027 RMK A01 T01311006  RH  039%=      5-min Rain = 0
KME1 201816Z 19014KT 13/M01 A3027 RMK A01 T01311007  RH  039%=      5-min Rain = 0
KME1 201817Z 19013KT 13/M01 A3027 RMK A01 T01301006  RH  039%=      5-min Rain = 0
KME1 201818Z 20010KT 13/M01 A3027 RMK A01 T01311005  RH  039%=      5-min Rain = 0
KME1 201819Z 20011KT 13/M00 A3027 RMK A01 T01331003  RH  039%=      5-min Rain = 0
KME1 201820Z 21010KT 14/M00 A3027 RMK A01 T01351003  RH  039%=      5-min Rain = 0
KME1 201821Z 21010KT 14/M00 A3026 RMK A01 T01371001  RH  039%=      5-min Rain = 0
KME1 201822Z 19009KT 14/00 A3026 RMK A01 T01380001  RH  039%=      5-min Rain = 0
KME1 201823Z 19011KT 14/M00 A3026 RMK A01 T01381003  RH  038%=      5-min Rain = 0
KME1 201824Z 20014KT 14/M00 A3026 RMK A01 T01361004  RH  038%=      5-min Rain = 0
KME1 201825Z 20013KT 14/M01 A3026 RMK A01 T01351005  RH  038%=      5-min Rain = 0
KME1 201826Z 19013KT 13/M01 A3026 RMK A01 T01341006  RH  038%=      5-min Rain = 0
KME1 201827Z 18013KT 13/M01 A3026 RMK A01 T01341005  RH  038%=      5-min Rain = 0
KME1 201828Z 18012KT 13/M00 A3026 RMK A01 T01341003  RH  039%=      5-min Rain = 0
KME1 201829Z 18012KT 14/M00 A3026 RMK A01 T01371002  RH  039%=      5-min Rain = 0
KME1 201830Z 19010KT 14/M00 A3026 RMK A01 T01371003  RH  038%=      5-min Rain = 0
KME1 201831Z 19010KT 14/M00 A3026 RMK A01 T01381001  RH  039%=      5-min Rain = 0
KME1 201832Z 19012KT 14/M00 A3025 RMK A01 T01391001  RH  038%=      5-min Rain = 0
KME1 201833Z 19011KT 14/M00 A3025 RMK A01 T01401003  RH  037%=      5-min Rain = 0
KME1 201834Z 20010KT 14/M00 A3025 RMK A01 T01411004  RH  037%=      5-min Rain = 0
KME1 201835Z 20011KT 14/M01 A3025 RMK A01 T01411005  RH  037%=      5-min Rain = 0
KME1 201836Z 20010G15KT 14/M01 A3025 RMK A01 T01421007  RH  036%=      5-min Rain = 0
KME1 201837Z 20012KT 14/M01 A3025 RMK A01 T01421009  RH  036%=      5-min Rain = 0
KME1 201838Z 20011KT 14/M01 A3025 RMK A01 T01421009  RH  036%=      5-min Rain = 0
KME1 201839Z 21011KT 14/M01 A3025 RMK A01 T01421007  RH  036%=      5-min Rain = 0
KME1 201840Z 21009KT 14/M00 A3025 RMK A01 T01431004  RH  036%=      5-min Rain = 0
KME1 201841Z 20009KT 15/M00 A3025 RMK A01 T01451004  RH  036%=      5-min Rain = 0
KME1 201842Z 22011KT 15/M01 A3025 RMK A01 T01451005  RH  036%=      5-min Rain = 0
KME1 201843Z 20012KT 15/M01 A3025 RMK A01 T01451007  RH  035%=      5-min Rain = 0
KME1 201844Z 20010KT 15/M01 A3025 RMK A01 T01451005  RH  036%=      5-min Rain = 0
KME1 201845Z 20010KT 15/M01 A3025 RMK A01 T01461006  RH  035%=      5-min Rain = 0
KME1 201846Z 20011KT 15/M01 A3025 RMK A01 T01471005  RH  035%=      5-min Rain = 0
KME1 201847Z 20010KT 15/M01 A3025 RMK A01 T01481008  RH  034%=      5-min Rain = 0
KME1 201848Z 21009KT 15/M01 A3025 RMK A01 T01481005  RH  035%=      5-min Rain = 0
KME1 201849Z 21014KT 15/M00 A3024 RMK A01 T01511003  RH  035%=      5-min Rain = 0
KME1 201850Z 20010KT 15/M01 A3024 RMK A01 T01501011  RH  033%=      5-min Rain = 0
KME1 201851Z 21011KT 15/M01 A3024 RMK A01 T01481009  RH  034%=      5-min Rain = 0
KME1 201852Z 21014KT 15/M01 A3024 RMK A01 T01491009  RH  034%=      5-min Rain = 0
KME1 201853Z 21012KT 15/M01 A3024 RMK A01 T01491013  RH  033%=      5-min Rain = 0
KME1 201854Z 21012KT 15/M01 A3024 RMK A01 T01491010  RH  034%=      5-min Rain = 0
KME1 201855Z 22011KT 15/M01 A3024 RMK A01 T01491011  RH  033%=      5-min Rain = 0
KME1 201856Z 22012KT 15/M01 A3024 RMK A01 T01491009  RH  034%=      5-min Rain = 0
KME1 201857Z 21011KT 15/M01 A3024 RMK A01 T01501006  RH  034%=      5-min Rain = 0
KME1 201858Z 21010KT 15/M01 A3024 RMK A01 T01511008  RH  034%=      5-min Rain = 0
KME1 201859Z 20009KT 15/M01 A3024 RMK A01 T01511005  RH  034%=      5-min Rain = 0
KME1 201900Z 19008KT 15/M00 A3024 RMK A01 T01521004  RH  034%=      5-min Rain = 0
KME1 201901Z 20008KT 15/M00 A3024 RMK A01 T01541001  RH  035%=      5-min Rain = 0
KME1 201902Z 21010KT 16/M00 A3024 RMK A01 T01551003  RH  034%=      5-min Rain = 0
KME1 201903Z 21011KT 16/M00 A3024 RMK A01 T01561003  RH  034%=      5-min Rain = 0
KME1 201904Z 21012KT 16/M01 A3023 RMK A01 T01561006  RH  033%=      5-min Rain = 0
KME1 201905Z 20011KT 15/M01 A3023 RMK A01 T01531011  RH  033%=      5-min Rain = 0
KME1 201906Z 20012KT 15/M01 A3023 RMK A01 T01511011  RH  033%=      5-min Rain = 0
KME1 201907Z 20009KT 15/M01 A3023 RMK A01 T01521010  RH  033%=      5-min Rain = 0
KME1 201908Z 19008KT 15/M01 A3023 RMK A01 T01521009  RH  033%=      5-min Rain = 0
KME1 201909Z 20009G15KT 15/M01 A3023 RMK A01 T01541005  RH  034%=      5-min Rain = 0
KME1 201910Z 21015KT 16/M01 A3023 RMK A01 T01561008  RH  033%=      5-min Rain = 0
KME1 201911Z 21013KT 15/M01 A3023 RMK A01 T01541011  RH  032%=      5-min Rain = 0
KME1 201912Z 21014KT 15/M01 A3023 RMK A01 T01521012  RH  032%=      5-min Rain = 0
KME1 201913Z 20011KT 15/M01 A3023 RMK A01 T01521011  RH  033%=      5-min Rain = 0
KME1 201914Z 20011KT 15/M01 A3023 RMK A01 T01521009  RH  033%=      5-min Rain = 0
KME1 201915Z 20012KT 15/M01 A3023 RMK A01 T01531008  RH  033%=      5-min Rain = 0
KME1 201916Z 20011KT 16/M00 A3023 RMK A01 T01561004  RH  034%=      5-min Rain = 0
KME1 201917Z 21014KT 16/M01 A3023 RMK A01 T01571008  RH  032%=      5-min Rain = 0
KME1 201918Z 20010KT 16/M01 A3023 RMK A01 T01561009  RH  032%=      5-min Rain = 0
KME1 201919Z 20010G15KT 16/M01 A3023 RMK A01 T01561008  RH  033%=      5-min Rain = 0
KME1 201920Z 21012KT 16/M01 A3023 RMK A01 T01561009  RH  032%=      5-min Rain = 0
KME1 201921Z 21009KT 15/M01 A3023 RMK A01 T01541010  RH  032%=      5-min Rain = 0
KME1 201922Z 21010KT 16/M01 A3023 RMK A01 T01561007  RH  033%=      5-min Rain = 0
KME1 201923Z 20010KT 16/M01 A3023 RMK A01 T01571009  RH  032%=      5-min Rain = 0
KME1 201924Z 23006G11KT 16/M01 A3023 RMK A01 T01571009  RH  032%=      5-min Rain = 0
KME1 201925Z 24009KT 16/M00 A3023 RMK A01 T01581004  RH  033%=      5-min Rain = 0
KME1 201926Z 23008KT 16/M01 A3023 RMK A01 T01601006  RH  032%=      5-min Rain = 0
KME1 201927Z 21008KT 16/M00 A3023 RMK A01 T01611004  RH  032%=      5-min Rain = 0
KME1 201928Z 19010KT 16/M00 A3023 RMK A01 T01621002  RH  033%=      5-min Rain = 0
KME1 201929Z 20009KT 16/M01 A3023 RMK A01 T01611006  RH  032%=      5-min Rain = 0
KME1 201930Z 20012KT 16/M01 A3023 RMK A01 T01601007  RH  032%=      5-min Rain = 0
KME1 201931Z 21012KT 16/M01 A3023 RMK A01 T01601006  RH  032%=      5-min Rain = 0
KME1 201932Z 21011KT 16/M01 A3022 RMK A01 T01611007  RH  032%=      5-min Rain = 0
KME1 201933Z 22010G15KT 16/M00 A3022 RMK A01 T01611003  RH  033%=      5-min Rain = 0
KME1 201934Z 22012KT 16/M01 A3022 RMK A01 T01631005  RH  032%=      5-min Rain = 0
KME1 201935Z 23011KT 16/M01 A3022 RMK A01 T01631005  RH  032%=      5-min Rain = 0
KME1 201936Z 22011KT 16/M01 A3022 RMK A01 T01641006  RH  031%=      5-min Rain = 0
KME1 201937Z 23010KT 16/M00 A3022 RMK A01 T01641002  RH  032%=      5-min Rain = 0
KME1 201938Z 22011KT 17/M00 A3022 RMK A01 T01661004  RH  031%=      5-min Rain = 0
KME1 201939Z 21011KT 17/M01 A3022 RMK A01 T01651006  RH  031%=      5-min Rain = 0
KME1 201940Z 20011KT 16/M01 A3022 RMK A01 T01631006  RH  032%=      5-min Rain = 0
KME1 201941Z 19011KT 16/M00 A3022 RMK A01 T01631003  RH  032%=      5-min Rain = 0
KME1 201942Z 20012KT 16/M01 A3022 RMK A01 T01621007  RH  032%=      5-min Rain = 0
KME1 201943Z 20010KT 16/M01 A3022 RMK A01 T01611006  RH  032%=      5-min Rain = 0
KME1 201944Z 19012KT 16/M01 A3021 RMK A01 T01621005  RH  032%=      5-min Rain = 0
KME1 201945Z 19011KT 16/M01 A3021 RMK A01 T01611008  RH  032%=      5-min Rain = 0
KME1 201946Z 19012KT 16/M01 A3021 RMK A01 T01591005  RH  033%=      5-min Rain = 0
KME1 201947Z 21013KT 16/M00 A3021 RMK A01 T01601004  RH  033%=      5-min Rain = 0
KME1 201948Z 21010KT 16/M01 A3021 RMK A01 T01611005  RH  032%=      5-min Rain = 0
KME1 201949Z 19009KT 16/M01 A3021 RMK A01 T01611006  RH  032%=      5-min Rain = 0
KME1 201950Z 19011KT 16/M01 A3021 RMK A01 T01601007  RH  032%=      5-min Rain = 0
KME1 201951Z 19010KT 16/M01 A3021 RMK A01 T01601005  RH  032%=      5-min Rain = 0
KME1 201952Z 20009KT 16/M01 A3021 RMK A01 T01601006  RH  032%=      5-min Rain = 0
KME1 201953Z 20008KT 16/M01 A302 RMK A01 T01611006  RH  032%=      5-min Rain = 0
KME1 201954Z 17009KT 16/00 A302 RMK A01 T016400-0  RH  033%=      5-min Rain = 0
KME1 201955Z 18010KT 17/00 A302 RMK A01 T016700-0  RH  032%=      5-min Rain = 0
KME1 201956Z 21011KT 17/M00 A302 RMK A01 T01681001  RH  032%=      5-min Rain = 0
KME1 201957Z 21011KT 17/M00 A302 RMK A01 T01671004  RH  031%=      5-min Rain = 0
KME1 201958Z 20011KT 17/M00 A302 RMK A01 T01671004  RH  031%=      5-min Rain = 0
KME1 201959Z 20008KT 17/M00 A302 RMK A01 T01681001  RH  032%=      5-min Rain = 0
KME1 202000Z 20006KT 17/00 A302 RMK A01 T01720003  RH  032%=      5-min Rain = 0
KME1 202001Z 19009KT 17/00 A302 RMK A01 T01740003  RH  031%=      5-min Rain = 0
KME1 202002Z 20009KT 17/00 A302 RMK A01 T017400-0  RH  031%=      5-min Rain = 0
KME1 202003Z 21011KT 17/M00 A302 RMK A01 T01731003  RH  030%=      5-min Rain = 0
KME1 202004Z 22013KT 17/M01 A302 RMK A01 T01721006  RH  030%=      5-min Rain = 0
KME1 202005Z 23012KT 17/M01 A302 RMK A01 T01681008  RH  030%=      5-min Rain = 0
KME1 202006Z 20011KT 17/M01 A3019 RMK A01 T01661008  RH  031%=      5-min Rain = 0
KME1 202007Z 18012KT 17/M01 A3019 RMK A01 T01651006  RH  031%=      5-min Rain = 0
KME1 202008Z 19013KT 17/M01 A3019 RMK A01 T01661005  RH  031%=      5-min Rain = 0
KME1 202009Z 19011KT 17/M01 A3019 RMK A01 T01661005  RH  031%=      5-min Rain = 0
KME1 202010Z 20011KT 17/M00 A3019 RMK A01 T01671004  RH  031%=      5-min Rain = 0
KME1 202011Z 18010KT 17/M00 A3019 RMK A01 T01681004  RH  031%=      5-min Rain = 0
KME1 202012Z 18010KT 17/M01 A3019 RMK A01 T01691007  RH  030%=      5-min Rain = 0
KME1 202013Z 20012KT 17/M00 A3019 RMK A01 T01681004  RH  031%=      5-min Rain = 0
KME1 202014Z 21011KT 17/M00 A3019 RMK A01 T01701004  RH  031%=      5-min Rain = 0
KME1 202015Z 21011KT 17/M01 A3019 RMK A01 T01701006  RH  030%=      5-min Rain = 0
KME1 202016Z 21012KT 17/M01 A3019 RMK A01 T01691007  RH  030%=      5-min Rain = 0
KME1 202017Z 21010KT 17/M01 A3019 RMK A01 T01671009  RH  030%=      5-min Rain = 0
KME1 202018Z 22009KT 17/M01 A3019 RMK A01 T01671005  RH  031%=      5-min Rain = 0
KME1 202019Z 22013KT 17/M00 A3019 RMK A01 T01691004  RH  031%=      5-min Rain = 0
KME1 202020Z 19013KT 17/M00 A3019 RMK A01 T01711004  RH  030%=      5-min Rain = 0
KME1 202021Z 20012G18KT 17/M01 A3019 RMK A01 T01711006  RH  030%=      5-min Rain = 0
KME1 202022Z 21013G18KT 17/M01 A3019 RMK A01 T01701007  RH  030%=      5-min Rain = 0
KME1 202023Z 20012G17KT 17/M01 A3019 RMK A01 T01691010  RH  029%=      5-min Rain = 0
KME1 202024Z 20014KT 17/M01 A3018 RMK A01 T01691008  RH  030%=      5-min Rain = 0
KME1 202025Z 20012G17KT 17/M01 A3018 RMK A01 T01691009  RH  030%=      5-min Rain = 0
KME1 202026Z 20010KT 17/M01 A3018 RMK A01 T01691007  RH  030%=      5-min Rain = 0
KME1 202027Z 20014KT 17/M01 A3018 RMK A01 T01701006  RH  030%=      5-min Rain = 0
KME1 202028Z 20013KT 17/M01 A3018 RMK A01 T01711008  RH  030%=      5-min Rain = 0
KME1 202029Z 21012KT 17/M01 A3018 RMK A01 T01711008  RH  030%=      5-min Rain = 0
KME1 202030Z 21012G17KT 17/M01 A3018 RMK A01 T01721006  RH  030%=      5-min Rain = 0
KME1 202031Z 21011KT 17/M01 A3018 RMK A01 T01731006  RH  030%=      5-min Rain = 0
KME1 202032Z 21011KT 17/M00 A3018 RMK A01 T01721002  RH  031%=      5-min Rain = 0
KME1 202033Z 21011KT 17/M00 A3018 RMK A01 T01741003  RH  030%=      5-min Rain = 0
KME1 202034Z 21014KT 17/M00 A3018 RMK A01 T01741003  RH  030%=      5-min Rain = 0
KME1 202035Z 21011KT 17/M01 A3018 RMK A01 T01741006  RH  030%=      5-min Rain = 0
KME1 202036Z 21012KT 17/M01 A3018 RMK A01 T01741005  RH  030%=      5-min Rain = 0
KME1 202037Z 21011KT 17/M01 A3018 RMK A01 T01741007  RH  029%=      5-min Rain = 0
KME1 202038Z 20011KT 17/M01 A3018 RMK A01 T01731005  RH  030%=      5-min Rain = 0
KME1 202039Z 19011KT 17/M01 A3018 RMK A01 T01721005  RH  030%=      5-min Rain = 0
KME1 202040Z 19010KT 17/M00 A3018 RMK A01 T01721003  RH  031%=      5-min Rain = 0
KME1 202041Z 20011G16KT 17/00 A3018 RMK A01 T017200-0  RH  031%=      5-min Rain = 0
KME1 202042Z 21014G19KT 17/M00 A3018 RMK A01 T01731004  RH  030%=      5-min Rain = 0
KME1 202043Z 19014KT 17/M00 A3018 RMK A01 T01731001  RH  031%=      5-min Rain = 0
KME1 202044Z 19013KT 17/M01 A3018 RMK A01 T01721005  RH  030%=      5-min Rain = 0
KME1 202045Z 20011KT 17/M01 A3018 RMK A01 T01701006  RH  030%=      5-min Rain = 0
KME1 202046Z 20009KT 17/M01 A3018 RMK A01 T01691006  RH  030%=      5-min Rain = 0
KME1 202047Z 19010KT 17/M00 A3018 RMK A01 T01691003  RH  031%=      5-min Rain = 0
KME1 202048Z 20012KT 17/00 A3017 RMK A01 T017100-0  RH  031%=      5-min Rain = 0
KME1 202049Z 20013KT 17/M00 A3017 RMK A01 T01721003  RH  030%=      5-min Rain = 0
KME1 202050Z 20016G22KT 17/M01 A3017 RMK A01 T01721005  RH  030%=      5-min Rain = 0
KME1 202051Z 20014KT 17/M01 A3017 RMK A01 T01711006  RH  030%=      5-min Rain = 0
KME1 202052Z 20013KT 17/M01 A3017 RMK A01 T01711005  RH  030%=      5-min Rain = 0
KME1 202053Z 21011KT 17/M01 A3017 RMK A01 T01711005  RH  030%=      5-min Rain = 0
KME1 202054Z 21012KT 17/M00 A3017 RMK A01 T01711004  RH  030%=      5-min Rain = 0
KME1 202055Z 21013KT 17/M01 A3017 RMK A01 T01711005  RH  030%=      5-min Rain = 0
KME1 202056Z 21011KT 17/M01 A3017 RMK A01 T01711005  RH  030%=      5-min Rain = 0
KME1 202057Z 22014KT 17/M00 A3017 RMK A01 T01731003  RH  030%=      5-min Rain = 0
KME1 202058Z 21014KT 17/M01 A3017 RMK A01 T01721006  RH  030%=      5-min Rain = 0
KME1 202059Z 19014KT 17/M00 A3017 RMK A01 T01711003  RH  031%=      5-min Rain = 0
KME1 202100Z 19013KT 17/M01 A3017 RMK A01 T01691006  RH  030%=      5-min Rain = 0
KME1 202101Z 20012KT 17/M01 A3017 RMK A01 T01661008  RH  031%=      5-min Rain = 0
KME1 202102Z 20011KT 17/M01 A3017 RMK A01 T01661007  RH  031%=      5-min Rain = 0
KME1 202103Z 20009KT 17/M01 A3017 RMK A01 T01671006  RH  031%=      5-min Rain = 0
KME1 202104Z 18011G16KT 17/M00 A3016 RMK A01 T01701003  RH  031%=      5-min Rain = 0
KME1 202105Z 20012KT 17/M01 A3016 RMK A01 T01711005  RH  030%=      5-min Rain = 0
KME1 202106Z 20010KT 17/M00 A3016 RMK A01 T01711003  RH  031%=      5-min Rain = 0
KME1 202107Z 20010KT 17/M00 A3016 RMK A01 T01721003  RH  031%=      5-min Rain = 0
KME1 202108Z 19009KT 17/M00 A3016 RMK A01 T01721003  RH  030%=      5-min Rain = 0
KME1 202109Z 19012KT 17/M00 A3016 RMK A01 T01721002  RH  031%=      5-min Rain = 0
KME1 202110Z 19012KT 17/M01 A3016 RMK A01 T01711005  RH  030%=      5-min Rain = 0
KME1 202111Z 20010KT 17/M00 A3016 RMK A01 T01691004  RH  031%=      5-min Rain = 0
KME1 202112Z 20013KT 17/M00 A3016 RMK A01 T01691004  RH  031%=      5-min Rain = 0
KME1 202113Z 21014KT 17/M01 A3016 RMK A01 T01691006  RH  030%=      5-min Rain = 0
KME1 202114Z 20013KT 17/M01 A3016 RMK A01 T01691007  RH  030%=      5-min Rain = 0
KME1 202115Z 19015KT 17/M01 A3016 RMK A01 T01691008  RH  030%=      5-min Rain = 0
KME1 202116Z 19015KT 17/M01 A3016 RMK A01 T01691009  RH  030%=      5-min Rain = 0
KME1 202117Z 19010KT 17/M01 A3016 RMK A01 T01681008  RH  030%=      5-min Rain = 0
KME1 202118Z 20011KT 17/M01 A3016 RMK A01 T01671008  RH  030%=      5-min Rain = 0
KME1 202119Z 20009KT 17/M01 A3016 RMK A01 T01681007  RH  030%=      5-min Rain = 0
KME1 202120Z 20009KT 17/M00 A3016 RMK A01 T01691003  RH  031%=      5-min Rain = 0
KME1 202121Z 20012KT 17/M00 A3016 RMK A01 T01711004  RH  030%=      5-min Rain = 0
KME1 202122Z 21013KT 17/M01 A3016 RMK A01 T01721006  RH  030%=      5-min Rain = 0
KME1 202123Z 21011KT 17/M01 A3016 RMK A01 T01711007  RH  030%=      5-min Rain = 0
KME1 202124Z 22014KT 17/M01 A3016 RMK A01 T01711008  RH  030%=      5-min Rain = 0
KME1 202125Z 22011KT 17/M01 A3016 RMK A01 T01701011  RH  029%=      5-min Rain = 0
KME1 202126Z 22011KT 17/M01 A3016 RMK A01 T01691009  RH  030%=      5-min Rain = 0
KME1 202127Z 21009KT 17/M01 A3016 RMK A01 T01711006  RH  030%=      5-min Rain = 0
KME1 202128Z 21011KT 17/M01 A3016 RMK A01 T01721008  RH  029%=      5-min Rain = 0
KME1 202129Z 21011KT 17/M01 A3016 RMK A01 T01711007  RH  030%=      5-min Rain = 0
KME1 202130Z 18012KT 17/M01 A3016 RMK A01 T01711005  RH  030%=      5-min Rain = 0
KME1 202131Z 19013KT 17/M01 A3016 RMK A01 T01701009  RH  030%=      5-min Rain = 0
KME1 202132Z 19010KT 17/M01 A3016 RMK A01 T01681009  RH  030%=      5-min Rain = 0
KME1 202133Z 19012KT 17/M01 A3016 RMK A01 T01681006  RH  031%=      5-min Rain = 0
KME1 202134Z 20015KT 17/M01 A3016 RMK A01 T01691008  RH  030%=      5-min Rain = 0
KME1 202135Z 21012KT 17/M01 A3016 RMK A01 T01691009  RH  030%=      5-min Rain = 0
KME1 202136Z 22013KT 17/M01 A3016 RMK A01 T01681006  RH  030%=      5-min Rain = 0
KME1 202137Z 21014KT 17/M01 A3016 RMK A01 T01681009  RH  030%=      5-min Rain = 0
KME1 202138Z 20013KT 17/M01 A3016 RMK A01 T01661011  RH  030%=      5-min Rain = 0
KME1 202139Z 21009KT 17/M01 A3016 RMK A01 T01651009  RH  031%=      5-min Rain = 0
KME1 202140Z 21010KT 17/M01 A3016 RMK A01 T01651009  RH  031%=      5-min Rain = 0
KME1 202141Z 22012KT 17/M01 A3016 RMK A01 T01661008  RH  030%=      5-min Rain = 0
KME1 202142Z 21012KT 17/M01 A3016 RMK A01 T01661009  RH  030%=      5-min Rain = 0
KME1 202143Z 20012KT 17/M01 A3016 RMK A01 T01661008  RH  031%=      5-min Rain = 0
KME1 202144Z 19012KT 17/M01 A3016 RMK A01 T01671009  RH  030%=      5-min Rain = 0
KME1 202145Z 19011KT 17/M01 A3016 RMK A01 T01671012  RH  030%=      5-min Rain = 0
KME1 202146Z 18014KT 17/M01 A3016 RMK A01 T01661011  RH  030%=      5-min Rain = 0
KME1 202147Z 20011KT 17/M01 A3016 RMK A01 T01671009  RH  030%=      5-min Rain = 0
KME1 202148Z 19010KT 17/M01 A3016 RMK A01 T01671009  RH  030%=      5-min Rain = 0
KME1 202149Z 19011KT 17/M01 A3016 RMK A01 T01691008  RH  030%=      5-min Rain = 0
KME1 202150Z 18011KT 17/M01 A3016 RMK A01 T01681010  RH  030%=      5-min Rain = 0
KME1 202151Z 17010KT 17/M01 A3016 RMK A01 T01681009  RH  030%=      5-min Rain = 0
KME1 202152Z 19010KT 17/M01 A3016 RMK A01 T01681009  RH  030%=      5-min Rain = 0
KME1 202153Z 19012KT 17/M01 A3016 RMK A01 T01681008  RH  030%=      5-min Rain = 0
KME1 202154Z 19011KT 17/M01 A3016 RMK A01 T01691009  RH  030%=      5-min Rain = 0
KME1 202155Z 18011KT 17/M01 A3016 RMK A01 T01681009  RH  030%=      5-min Rain = 0
KME1 202156Z 20010KT 17/M01 A3016 RMK A01 T01681008  RH  030%=      5-min Rain = 0
KME1 202157Z 19014KT 17/M01 A3016 RMK A01 T01681011  RH  030%=      5-min Rain = 0
KME1 202158Z 19014KT 17/M01 A3016 RMK A01 T01671010  RH  030%=      5-min Rain = 0
KME1 202159Z 20009KT 17/M01 A3016 RMK A01 T01661007  RH  031%=      5-min Rain = 0
KME1 202200Z 20011KT 17/M01 A3016 RMK A01 T01671008  RH  030%=      5-min Rain = 0
KME1 202201Z 20012KT 17/M01 A3016 RMK A01 T01671009  RH  030%=      5-min Rain = 0
KME1 202202Z 19014KT 17/M01 A3016 RMK A01 T01671011  RH  030%=      5-min Rain = 0
KME1 202203Z 19013KT 17/M01 A3016 RMK A01 T01671010  RH  030%=      5-min Rain = 0
KME1 202204Z 20013KT 17/M01 A3016 RMK A01 T01681012  RH  029%=      5-min Rain = 0
KME1 202205Z 20009KT 17/M01 A3016 RMK A01 T01671011  RH  030%=      5-min Rain = 0
KME1 202206Z 19009KT 17/M01 A3016 RMK A01 T01681008  RH  030%=      5-min Rain = 0
KME1 202207Z 19009KT 17/M01 A3016 RMK A01 T01691008  RH  030%=      5-min Rain = 0
KME1 202208Z 19013KT 17/M01 A3016 RMK A01 T01701008  RH  030%=      5-min Rain = 0
KME1 202209Z 20012KT 17/M01 A3016 RMK A01 T01691009  RH  030%=      5-min Rain = 0
KME1 202210Z 21012KT 17/M01 A3016 RMK A01 T01681009  RH  030%=      5-min Rain = 0
KME1 202211Z 21010KT 17/M01 A3016 RMK A01 T01681010  RH  030%=      5-min Rain = 0
KME1 202212Z 20012KT 17/M01 A3016 RMK A01 T01681009  RH  030%=      5-min Rain = 0
KME1 202213Z 21012KT 17/M01 A3016 RMK A01 T01691009  RH  030%=      5-min Rain = 0
KME1 202214Z 21012KT 17/M01 A3016 RMK A01 T01691010  RH  030%=      5-min Rain = 0
KME1 202215Z 20012KT 17/M01 A3016 RMK A01 T01691010  RH  030%=      5-min Rain = 0
KME1 202216Z 21009KT 17/M01 A3016 RMK A01 T01691010  RH  030%=      5-min Rain = 0
KME1 202217Z 22009KT 17/M01 A3016 RMK A01 T01691011  RH  029%=      5-min Rain = 0
KME1 202218Z 21009KT 17/M01 A3016 RMK A01 T01701010  RH  029%=      5-min Rain = 0
KME1 202219Z 21011KT 17/M01 A3016 RMK A01 T01711010  RH  029%=      5-min Rain = 0
KME1 202220Z 21010KT 17/M01 A3016 RMK A01 T01711008  RH  029%=      5-min Rain = 0
KME1 202221Z 20014KT 17/M01 A3016 RMK A01 T01711010  RH  029%=      5-min Rain = 0
KME1 202222Z 19012KT 17/M01 A3016 RMK A01 T01691011  RH  029%=      5-min Rain = 0
KME1 202223Z 19011KT 17/M01 A3016 RMK A01 T01681011  RH  030%=      5-min Rain = 0
KME1 202224Z 19012KT 17/M01 A3016 RMK A01 T01681010  RH  030%=      5-min Rain = 0
KME1 202225Z 19011KT 17/M01 A3016 RMK A01 T01681011  RH  030%=      5-min Rain = 0
KME1 202226Z 21012KT 17/M01 A3016 RMK A01 T01681011  RH  029%=      5-min Rain = 0
KME1 202227Z 21013KT 17/M01 A3016 RMK A01 T01681014  RH  029%=      5-min Rain = 0
KME1 202228Z 21012KT 17/M01 A3016 RMK A01 T01681013  RH  029%=      5-min Rain = 0
KME1 202229Z 20014KT 17/M01 A3016 RMK A01 T01681013  RH  029%=      5-min Rain = 0
KME1 202230Z 20011KT 17/M01 A3016 RMK A01 T01681013  RH  029%=      5-min Rain = 0
KME1 202231Z 21012KT 17/M01 A3016 RMK A01 T01681013  RH  029%=      5-min Rain = 0
KME1 202232Z 21011KT 17/M01 A3016 RMK A01 T01681012  RH  029%=      5-min Rain = 0
KME1 202233Z 19012KT 17/M01 A3016 RMK A01 T01681012  RH  029%=      5-min Rain = 0
KME1 202234Z 20011KT 17/M01 A3016 RMK A01 T01681014  RH  029%=      5-min Rain = 0
KME1 202235Z 19008KT 17/M01 A3016 RMK A01 T01671013  RH  029%=      5-min Rain = 0
KME1 202236Z 19008KT 17/M01 A3016 RMK A01 T01681010  RH  030%=      5-min Rain = 0
KME1 202237Z 20008KT 17/M01 A3016 RMK A01 T01681012  RH  029%=      5-min Rain = 0
KME1 202238Z 20008KT 17/M01 A3016 RMK A01 T01691009  RH  030%=      5-min Rain = 0
KME1 202239Z 18010G16KT 17/M01 A3016 RMK A01 T01691008  RH  030%=      5-min Rain = 0
KME1 202240Z 18012KT 17/M01 A3016 RMK A01 T01691011  RH  029%=      5-min Rain = 0
KME1 202241Z 20010KT 17/M01 A3016 RMK A01 T01681013  RH  029%=      5-min Rain = 0
KME1 202242Z 20011KT 17/M01 A3016 RMK A01 T01671013  RH  029%=      5-min Rain = 0
KME1 202243Z 20011KT 17/M01 A3016 RMK A01 T01671012  RH  029%=      5-min Rain = 0
KME1 202244Z 19009KT 17/M01 A3016 RMK A01 T01671013  RH  029%=      5-min Rain = 0
KME1 202245Z 20010KT 17/M01 A3016 RMK A01 T01681011  RH  029%=      5-min Rain = 0
KME1 202246Z 20008KT 17/M01 A3016 RMK A01 T01681011  RH  030%=      5-min Rain = 0
KME1 202247Z 20010KT 17/M01 A3016 RMK A01 T01691009  RH  030%=      5-min Rain = 0
KME1 202248Z 20012KT 17/M01 A3016 RMK A01 T01691012  RH  029%=      5-min Rain = 0
KME1 202249Z 20011KT 17/M01 A3016 RMK A01 T01681012  RH  029%=      5-min Rain = 0
KME1 202250Z 22012KT 17/M01 A3016 RMK A01 T01681010  RH  030%=      5-min Rain = 0
KME1 202251Z 21012KT 17/M01 A3015 RMK A01 T01681012  RH  029%=      5-min Rain = 0
KME1 202252Z 20010KT 17/M01 A3016 RMK A01 T01681010  RH  030%=      5-min Rain = 0
KME1 202253Z 20011KT 17/M01 A3015 RMK A01 T01681012  RH  029%=      5-min Rain = 0
KME1 202254Z 20012KT 17/M01 A3015 RMK A01 T01681014  RH  029%=      5-min Rain = 0
KME1 202255Z 19012KT 17/M01 A3015 RMK A01 T01671014  RH  029%=      5-min Rain = 0
KME1 202256Z 20010KT 17/M01 A3015 RMK A01 T01671014  RH  029%=      5-min Rain = 0
KME1 202257Z 20010KT 17/M01 A3015 RMK A01 T01671012  RH  029%=      5-min Rain = 0
KME1 202258Z 20011KT 17/M01 A3015 RMK A01 T01661013  RH  029%=      5-min Rain = 0
KME1 202259Z 20011G16KT 17/M01 A3015 RMK A01 T01661013  RH  029%=      5-min Rain = 0
KME1 202300Z 21013KT 17/M01 A3015 RMK A01 T01651014  RH  030%=      5-min Rain = 0
KME1 202301Z 19010KT 16/M01 A3015 RMK A01 T01641013  RH  030%=      5-min Rain = 0
KME1 202302Z 19009KT 16/M01 A3015 RMK A01 T01641011  RH  030%=      5-min Rain = 0
KME1 202303Z 19013KT 16/M01 A3015 RMK A01 T01641012  RH  030%=      5-min Rain = 0
KME1 202304Z 18012KT 16/M02 A3015 RMK A01 T01641015  RH  029%=      5-min Rain = 0
KME1 202305Z 20008KT 17/M01 A3015 RMK A01 T01651012  RH  030%=      5-min Rain = 0
KME1 202306Z 19011KT 17/M01 A3015 RMK A01 T01651011  RH  030%=      5-min Rain = 0
KME1 202307Z 20012KT 17/M02 A3015 RMK A01 T01661015  RH  029%=      5-min Rain = 0
KME1 202308Z 19011KT 17/M01 A3015 RMK A01 T01651014  RH  029%=      5-min Rain = 0
KME1 202309Z 19010KT 17/M01 A3015 RMK A01 T01651013  RH  030%=      5-min Rain = 0
KME1 202310Z 19012KT 17/M01 A3015 RMK A01 T01651012  RH  030%=      5-min Rain = 0
KME1 202311Z 20012KT 17/M01 A3015 RMK A01 T01651013  RH  030%=      5-min Rain = 0
KME1 202312Z 20012KT 16/M01 A3015 RMK A01 T01641013  RH  030%=      5-min Rain = 0
KME1 202313Z 20012KT 16/M01 A3015 RMK A01 T01631014  RH  030%=      5-min Rain = 0
KME1 202314Z 20012KT 16/M01 A3015 RMK A01 T01631014  RH  030%=      5-min Rain = 0
KME1 202315Z 19012KT 16/M02 A3014 RMK A01 T01621016  RH  030%=      5-min Rain = 0
KME1 202316Z 19011KT 16/M02 A3014 RMK A01 T01621015  RH  030%=      5-min Rain = 0
KME1 202317Z 19009KT 16/M01 A3014 RMK A01 T01611013  RH  030%=      5-min Rain = 0
KME1 202318Z 19007KT 16/M01 A3014 RMK A01 T01611009  RH  031%=      5-min Rain = 0
KME1 202319Z 19008KT 16/M01 A3014 RMK A01 T01601007  RH  032%=      5-min Rain = 0
KME1 202320Z 18009KT 16/M01 A3014 RMK A01 T01601008  RH  032%=      5-min Rain = 0
KME1 202321Z 18011KT 16/M01 A3014 RMK A01 T01591009  RH  032%=      5-min Rain = 0
KME1 202322Z 18014KT 16/M01 A3014 RMK A01 T01591011  RH  031%=      5-min Rain = 0
KME1 202323Z 19013KT 16/M01 A3014 RMK A01 T01591013  RH  031%=      5-min Rain = 0
KME1 202324Z 19012KT 16/M01 A3014 RMK A01 T01581012  RH  031%=      5-min Rain = 0
KME1 202325Z 19011KT 16/M01 A3014 RMK A01 T01581012  RH  031%=      5-min Rain = 0
KME1 202326Z 19011KT 16/M01 A3014 RMK A01 T01571012  RH  032%=      5-min Rain = 0
KME1 202327Z 19012KT 16/M01 A3014 RMK A01 T01561014  RH  031%=      5-min Rain = 0
KME1 202328Z 19012KT 16/M01 A3014 RMK A01 T01571014  RH  031%=      5-min Rain = 0
KME1 202329Z 19010KT 16/M01 A3014 RMK A01 T01571012  RH  031%=      5-min Rain = 0
KME1 202330Z 18010KT 16/M01 A3014 RMK A01 T01571011  RH  032%=      5-min Rain = 0
KME1 202331Z 19010KT 16/M01 A3014 RMK A01 T01571010  RH  032%=      5-min Rain = 0
KME1 202332Z 19007KT 16/M01 A3014 RMK A01 T01571010  RH  032%=      5-min Rain = 0
KME1 202333Z 19009KT 16/M01 A3014 RMK A01 T01561010  RH  032%=      5-min Rain = 0
KME1 202334Z 19009G14KT 16/M01 A3014 RMK A01 T01561011  RH  032%=      5-min Rain = 0
KME1 202335Z 19010KT 16/M01 A3014 RMK A01 T01561010  RH  032%=      5-min Rain = 0
KME1 202336Z 19011KT 16/M01 A3014 RMK A01 T01551011  RH  032%=      5-min Rain = 0
KME1 202337Z 19010KT 16/M01 A3014 RMK A01 T01551012  RH  032%=      5-min Rain = 0
KME1 202338Z 19009KT 16/M01 A3014 RMK A01 T01551012  RH  032%=      5-min Rain = 0
KME1 202339Z 19007KT 16/M01 A3014 RMK A01 T01551011  RH  032%=      5-min Rain = 0
KME1 202340Z 19008KT 15/M01 A3014 RMK A01 T01541010  RH  032%=      5-min Rain = 0
KME1 202341Z 19008KT 15/M01 A3014 RMK A01 T01531010  RH  033%=      5-min Rain = 0
KME1 202342Z 20009KT 15/M01 A3014 RMK A01 T01521010  RH  033%=      5-min Rain = 0
KME1 202343Z 20010KT 15/M01 A3014 RMK A01 T01511012  RH  033%=      5-min Rain = 0
KME1 202344Z 20009KT 15/M01 A3014 RMK A01 T01521012  RH  032%=      5-min Rain = 0
KME1 202345Z 19010KT 15/M01 A3014 RMK A01 T01521012  RH  032%=      5-min Rain = 0
KME1 202346Z 20009KT 15/M01 A3014 RMK A01 T01521013  RH  032%=      5-min Rain = 0
KME1 202347Z 19008KT 15/M01 A3014 RMK A01 T01521012  RH  032%=      5-min Rain = 0
KME1 202348Z 20008KT 15/M01 A3014 RMK A01 T01521011  RH  033%=      5-min Rain = 0
KME1 202349Z 19008KT 15/M01 A3014 RMK A01 T01511012  RH  033%=      5-min Rain = 0
KME1 202350Z 20008KT 15/M01 A3014 RMK A01 T01501012  RH  033%=      5-min Rain = 0
KME1 202351Z 19009KT 15/M01 A3014 RMK A01 T01501012  RH  033%=      5-min Rain = 0
KME1 202352Z 20008KT 15/M01 A3014 RMK A01 T01491012  RH  033%=      5-min Rain = 0
KME1 202353Z 20008KT 15/M01 A3014 RMK A01 T01481012  RH  033%=      5-min Rain = 0
KME1 202354Z 20010KT 15/M01 A3014 RMK A01 T01461012  RH  034%=      5-min Rain = 0
KME1 202355Z 20011KT 15/M01 A3014 RMK A01 T01451013  RH  034%=      5-min Rain = 0
KME1 202356Z 20009KT 15/M01 A3014 RMK A01 T01451014  RH  033%=      5-min Rain = 0
KME1 202357Z 19011KT 15/M01 A3014 RMK A01 T01461014  RH  033%=      5-min Rain = 0
KME1 202358Z 20010KT 15/M01 A3014 RMK A01 T01461014  RH  033%=      5-min Rain = 0
KME1 202359Z 20010KT 15/M01 A3014 RMK A01 T01451013  RH  034%=      5-min Rain = 0
KME1 210000Z 20010KT 15/M01 A3014 RMK A01 T01451013  RH  034%=      5-min Rain = 0
KME1 210001Z 20008KT 14/M01 A3014 RMK A01 T01441013  RH  034%=      5-min Rain = 0
KME1 210002Z 20009KT 14/M01 A3014 RMK A01 T01431013  RH  034%=      5-min Rain = 0
KME1 210003Z 19010KT 14/M01 A3014 RMK A01 T01431013  RH  034%=      5-min Rain = 0
KME1 210004Z 19007KT 14/M01 A3014 RMK A01 T01421013  RH  034%=      5-min Rain = 0
KME1 210005Z 19007KT 14/M01 A3014 RMK A01 T01411011  RH  035%=      5-min Rain = 0
KME1 210006Z 19008KT 14/M01 A3014 RMK A01 T01391012  RH  035%=      5-min Rain = 0
KME1 210007Z 19007KT 14/M01 A3014 RMK A01 T01381012  RH  036%=      5-min Rain = 0
KME1 210008Z 19007KT 14/M01 A3014 RMK A01 T01381011  RH  036%=      5-min Rain = 0
KME1 210009Z 19008KT 14/M01 A3014 RMK A01 T01371011  RH  036%=      5-min Rain = 0
KME1 210010Z 19007KT 14/M01 A3014 RMK A01 T01361011  RH  036%=      5-min Rain = 0
KME1 210011Z 19008KT 14/M01 A3014 RMK A01 T01361011  RH  036%=      5-min Rain = 0
KME1 210012Z 19008KT 14/M01 A3014 RMK A01 T01351011  RH  036%=      5-min Rain = 0
KME1 210013Z 19007KT 13/M01 A3014 RMK A01 T01341010  RH  037%=      5-min Rain = 0
KME1 210014Z 19007KT 13/M01 A3014 RMK A01 T01331010  RH  037%=      5-min Rain = 0
KME1 210015Z 19006KT 13/M01 A3014 RMK A01 T01321010  RH  037%=      5-min Rain = 0
KME1 210016Z 19007KT 13/M01 A3014 RMK A01 T01311010  RH  038%=      5-min Rain = 0
KME1 210017Z 19007KT 13/M01 A3014 RMK A01 T01311010  RH  038%=      5-min Rain = 0
KME1 210018Z 19007KT 13/M01 A3014 RMK A01 T01311010  RH  038%=      5-min Rain = 0
KME1 210019Z 19007KT 13/M01 A3014 RMK A01 T01301009  RH  038%=      5-min Rain = 0
KME1 210020Z 19007KT 13/M01 A3014 RMK A01 T01291009  RH  038%=      5-min Rain = 0
KME1 210021Z 19008KT 13/M01 A3014 RMK A01 T01281009  RH  039%=      5-min Rain = 0
KME1 210022Z 19008KT 13/M01 A3014 RMK A01 T01281009  RH  039%=      5-min Rain = 0
KME1 210023Z 19008KT 13/M01 A3014 RMK A01 T01281008  RH  039%=      5-min Rain = 0
KME1 210024Z 19008KT 13/M01 A3014 RMK A01 T01271008  RH  039%=      5-min Rain = 0
KME1 210025Z 19008KT 13/M01 A3014 RMK A01 T01261009  RH  039%=      5-min Rain = 0
KME1 210026Z 19008KT 13/M01 A3014 RMK A01 T01261008  RH  039%=      5-min Rain = 0
KME1 210027Z 19008KT 13/M01 A3014 RMK A01 T01261009  RH  039%=      5-min Rain = 0
KME1 210028Z 19008KT 13/M01 A3014 RMK A01 T01261008  RH  039%=      5-min Rain = 0
KME1 210029Z 19008KT 13/M01 A3014 RMK A01 T01251009  RH  040%=      5-min Rain = 0
KME1 210030Z 19008KT 13/M01 A3014 RMK A01 T01251008  RH  040%=      5-min Rain = 0
KME1 210031Z 19008KT 12/M01 A3014 RMK A01 T01241008  RH  040%=      5-min Rain = 0
KME1 210032Z 19008KT 12/M01 A3014 RMK A01 T01241008  RH  040%=      5-min Rain = 0
KME1 210033Z 19008KT 12/M01 A3014 RMK A01 T01241008  RH  040%=      5-min Rain = 0
KME1 210034Z 19008KT 12/M01 A3014 RMK A01 T01231008  RH  040%=      5-min Rain = 0
KME1 210035Z 19007KT 12/M01 A3014 RMK A01 T01221008  RH  040%=      5-min Rain = 0
KME1 210036Z 19007KT 12/M01 A3014 RMK A01 T01221008  RH  041%=      5-min Rain = 0
KME1 210037Z 19007KT 12/M01 A3014 RMK A01 T01211008  RH  041%=      5-min Rain = 0
KME1 210038Z 19007KT 12/M01 A3014 RMK A01 T01211008  RH  041%=      5-min Rain = 0
KME1 210039Z 19007KT 12/M01 A3014 RMK A01 T01201007  RH  041%=      5-min Rain = 0
KME1 210040Z 19007KT 12/M01 A3014 RMK A01 T01191007  RH  042%=      5-min Rain = 0
KME1 210041Z 19007KT 12/M01 A3014 RMK A01 T01181007  RH  042%=      5-min Rain = 0
KME1 210042Z 19007KT 12/M01 A3014 RMK A01 T01181007  RH  042%=      5-min Rain = 0
KME1 210043Z 19007KT 12/M01 A3014 RMK A01 T01171007  RH  042%=      5-min Rain = 0
KME1 210044Z 19007KT 12/M01 A3014 RMK A01 T01171007  RH  042%=      5-min Rain = 0
KME1 210045Z 19007KT 12/M01 A3014 RMK A01 T01161007  RH  043%=      5-min Rain = 0
KME1 210046Z 19007KT 12/M01 A3014 RMK A01 T01161006  RH  043%=      5-min Rain = 0
KME1 210047Z 19007KT 12/M01 A3014 RMK A01 T01151007  RH  043%=      5-min Rain = 0
KME1 210048Z 19007KT 12/M01 A3014 RMK A01 T01151006  RH  043%=      5-min Rain = 0
KME1 210049Z 19008KT 12/M01 A3014 RMK A01 T01151006  RH  043%=      5-min Rain = 0
KME1 210050Z 19007KT 11/M01 A3014 RMK A01 T01141006  RH  043%=      5-min Rain = 0
KME1 210051Z 19007KT 11/M01 A3014 RMK A01 T01141006  RH  043%=      5-min Rain = 0
KME1 210052Z 18007KT 11/M01 A3014 RMK A01 T01141006  RH  043%=      5-min Rain = 0
KME1 210053Z 18006KT 11/M01 A3014 RMK A01 T01131006  RH  044%=      5-min Rain = 0
KME1 210054Z 18006KT 11/M01 A3014 RMK A01 T01131006  RH  044%=      5-min Rain = 0
KME1 210055Z 18006KT 11/M01 A3014 RMK A01 T01121006  RH  044%=      5-min Rain = 0
KME1 210056Z 19006KT 11/M01 A3014 RMK A01 T01121006  RH  044%=      5-min Rain = 0
KME1 210057Z 19007KT 11/M01 A3014 RMK A01 T01111006  RH  044%=      5-min Rain = 0
KME1 210058Z 19006KT 11/M01 A3014 RMK A01 T01111006  RH  044%=      5-min Rain = 0
KME1 210059Z 19007KT 11/M01 A3014 RMK A01 T01111007  RH  044%=      5-min Rain = 0
KME1 210100Z 19007KT 11/M01 A3014 RMK A01 T01111007  RH  044%=      5-min Rain = 0
KME1 210101Z 19007KT 11/M01 A3014 RMK A01 T01111007  RH  044%=      5-min Rain = 0
KME1 210102Z 18007KT 11/M01 A3014 RMK A01 T01111007  RH  044%=      5-min Rain = 0
KME1 210103Z 19007KT 11/M01 A3014 RMK A01 T01111007  RH  044%=      5-min Rain = 0
KME1 210104Z 18007KT 11/M01 A3014 RMK A01 T01111006  RH  044%=      5-min Rain = 0
KME1 210105Z 19007KT 11/M01 A3014 RMK A01 T01101006  RH  045%=      5-min Rain = 0
KME1 210106Z 18007KT 11/M01 A3014 RMK A01 T01101007  RH  045%=      5-min Rain = 0
KME1 210107Z 18007KT 11/M01 A3014 RMK A01 T01091006  RH  045%=      5-min Rain = 0
KME1 210108Z 18007KT 11/M01 A3014 RMK A01 T01091006  RH  045%=      5-min Rain = 0
KME1 210109Z 18006KT 11/M01 A3014 RMK A01 T01071006  RH  045%=      5-min Rain = 0
KME1 210110Z 19007KT 11/M01 A3014 RMK A01 T01061006  RH  046%=      5-min Rain = 0
KME1 210111Z 19006KT 11/M01 A3014 RMK A01 T01061006  RH  046%=      5-min Rain = 0
KME1 210112Z 19007KT 11/M01 A3014 RMK A01 T01061006  RH  046%=      5-min Rain = 0
KME1 210113Z 19006KT 11/M01 A3014 RMK A01 T01051006  RH  046%=      5-min Rain = 0
KME1 210114Z 19007KT 10/M01 A3014 RMK A01 T01041007  RH  046%=      5-min Rain = 0
KME1 210115Z 19007KT 10/M01 A3014 RMK A01 T01041007  RH  046%=      5-min Rain = 0
KME1 210116Z 19007KT 10/M01 A3014 RMK A01 T01041007  RH  046%=      5-min Rain = 0
KME1 210117Z 19007KT 10/M01 A3014 RMK A01 T01041007  RH  046%=      5-min Rain = 0
KME1 210118Z 19008KT 10/M01 A3014 RMK A01 T01041007  RH  046%=      5-min Rain = 0
KME1 210119Z 19007KT 10/M01 A3014 RMK A01 T01041007  RH  046%=      5-min Rain = 0
KME1 210120Z 19008KT 10/M01 A3014 RMK A01 T01031007  RH  046%=      5-min Rain = 0
KME1 210121Z 19008KT 10/M01 A3014 RMK A01 T01031007  RH  046%=      5-min Rain = 0
KME1 210122Z 19008KT 10/M01 A3014 RMK A01 T01031007  RH  046%=      5-min Rain = 0
KME1 210123Z 19009KT 10/M01 A3014 RMK A01 T01041007  RH  046%=      5-min Rain = 0
KME1 210124Z 19009KT 10/M01 A3014 RMK A01 T01031007  RH  046%=      5-min Rain = 0
KME1 210125Z 19008KT 10/M01 A3014 RMK A01 T01031008  RH  046%=      5-min Rain = 0
KME1 210126Z 19009KT 10/M01 A3014 RMK A01 T01031008  RH  046%=      5-min Rain = 0
KME1 210127Z 19008KT 10/M01 A3014 RMK A01 T01031008  RH  046%=      5-min Rain = 0
KME1 210128Z 19007KT 10/M01 A3014 RMK A01 T01031007  RH  046%=      5-min Rain = 0
KME1 210129Z 20008KT 10/M01 A3014 RMK A01 T01021007  RH  047%=      5-min Rain = 0
KME1 210130Z 19009KT 10/M01 A3014 RMK A01 T01021007  RH  047%=      5-min Rain = 0
KME1 210131Z 19009KT 10/M01 A3014 RMK A01 T01021008  RH  046%=      5-min Rain = 0
KME1 210132Z 19009KT 10/M01 A3014 RMK A01 T01031008  RH  046%=      5-min Rain = 0
KME1 210133Z 19008KT 10/M01 A3014 RMK A01 T01031007  RH  046%=      5-min Rain = 0
KME1 210134Z 19009KT 10/M01 A3014 RMK A01 T01021007  RH  046%=      5-min Rain = 0
KME1 210135Z 19009KT 10/M01 A3014 RMK A01 T01021008  RH  046%=      5-min Rain = 0
KME1 210136Z 19009KT 10/M01 A3014 RMK A01 T01021008  RH  047%=      5-min Rain = 0
KME1 210137Z 19010KT 10/M01 A3014 RMK A01 T01021007  RH  047%=      5-min Rain = 0
KME1 210138Z 19009KT 10/M01 A3014 RMK A01 T01021008  RH  046%=      5-min Rain = 0
KME1 210139Z 19009KT 10/M01 A3014 RMK A01 T01021008  RH  046%=      5-min Rain = 0
KME1 210140Z 19010KT 10/M01 A3014 RMK A01 T01021007  RH  047%=      5-min Rain = 0
KME1 210141Z 19010KT 10/M01 A3014 RMK A01 T01021008  RH  046%=      5-min Rain = 0
KME1 210142Z 19010KT 10/M01 A3014 RMK A01 T01021008  RH  046%=      5-min Rain = 0
KME1 210143Z 19009KT 10/M01 A3014 RMK A01 T01031008  RH  046%=      5-min Rain = 0
KME1 210144Z 18009KT 10/M01 A3014 RMK A01 T01031008  RH  046%=      5-min Rain = 0
KME1 210145Z 19009KT 10/M01 A3014 RMK A01 T01031008  RH  046%=      5-min Rain = 0
KME1 210146Z 18008KT 10/M01 A3014 RMK A01 T01031007  RH  046%=      5-min Rain = 0
KME1 210147Z 18008KT 10/M01 A3014 RMK A01 T01031007  RH  047%=      5-min Rain = 0
KME1 210148Z 19008KT 10/M01 A3014 RMK A01 T01021007  RH  047%=      5-min Rain = 0
KME1 210149Z 19008KT 10/M01 A3014 RMK A01 T01021007  RH  047%=      5-min Rain = 0
KME1 210150Z 19009KT 10/M01 A3014 RMK A01 T01021007  RH  047%=      5-min Rain = 0
KME1 210151Z 19010KT 10/M01 A3014 RMK A01 T01021007  RH  047%=      5-min Rain = 0
KME1 210152Z 18009KT 10/M01 A3014 RMK A01 T01021007  RH  047%=      5-min Rain = 0
KME1 210153Z 19010KT 10/M01 A3014 RMK A01 T01011007  RH  047%=      5-min Rain = 0
KME1 210154Z 19009KT 10/M01 A3014 RMK A01 T01011007  RH  047%=      5-min Rain = 0
KME1 210155Z 18010KT 10/M01 A3014 RMK A01 T01011007  RH  047%=      5-min Rain = 0
KME1 210156Z 19010KT 10/M01 A3014 RMK A01 T01011007  RH  047%=      5-min Rain = 0
KME1 210157Z 19010KT 10/M01 A3014 RMK A01 T01011007  RH  047%=      5-min Rain = 0
KME1 210158Z 19011KT 10/M01 A3014 RMK A01 T01011007  RH  047%=      5-min Rain = 0
KME1 210159Z 19011KT 10/M01 A3014 RMK A01 T01011007  RH  047%=      5-min Rain = 0
KME1 210200Z 19011KT 10/M01 A3014 RMK A01 T01011007  RH  047%=      5-min Rain = 0
KME1 210201Z 19010KT 10/M01 A3014 RMK A01 T01011007  RH  047%=      5-min Rain = 0
KME1 210202Z 19011KT 10/M01 A3013 RMK A01 T01011007  RH  047%=      5-min Rain = 0
KME1 210203Z 19011KT 10/M01 A3013 RMK A01 T01011007  RH  047%=      5-min Rain = 0
KME1 210204Z 19012KT 10/M01 A3013 RMK A01 T01011008  RH  047%=      5-min Rain = 0
KME1 210205Z 19011KT 10/M01 A3013 RMK A01 T01021008  RH  046%=      5-min Rain = 0
KME1 210206Z 19010KT 10/M01 A3013 RMK A01 T01021007  RH  047%=      5-min Rain = 0
KME1 210207Z 19012KT 10/M01 A3013 RMK A01 T01011008  RH  047%=      5-min Rain = 0
KME1 210208Z 19012KT 10/M01 A3013 RMK A01 T01021008  RH  047%=      5-min Rain = 0
KME1 210209Z 19011KT 10/M01 A3013 RMK A01 T01021008  RH  046%=      5-min Rain = 0
KME1 210210Z 19012KT 10/M01 A3013 RMK A01 T01021008  RH  046%=      5-min Rain = 0
KME1 210211Z 18011KT 10/M01 A3013 RMK A01 T01021008  RH  046%=      5-min Rain = 0
KME1 210212Z 18010KT 10/M01 A3013 RMK A01 T01021007  RH  047%=      5-min Rain = 0
KME1 210213Z 19011KT 10/M01 A3013 RMK A01 T01011008  RH  047%=      5-min Rain = 0
KME1 210214Z 19010KT 10/M01 A3013 RMK A01 T01011008  RH  047%=      5-min Rain = 0
KME1 210215Z 18010KT 10/M01 A3013 RMK A01 T01011008  RH  047%=      5-min Rain = 0
KME1 210216Z 18010KT 10/M01 A3013 RMK A01 T01011008  RH  047%=      5-min Rain = 0
KME1 210217Z 19010KT 10/M01 A3013 RMK A01 T01011008  RH  047%=      5-min Rain = 0
KME1 210218Z 18010KT 10/M01 A3013 RMK A01 T01011008  RH  047%=      5-min Rain = 0
KME1 210219Z 19010KT 10/M01 A3013 RMK A01 T01011007  RH  047%=      5-min Rain = 0
KME1 210220Z 19011KT 10/M01 A3013 RMK A01 T01001008  RH  047%=      5-min Rain = 0
KME1 210221Z 19009KT 10/M01 A3013 RMK A01 T01001008  RH  047%=      5-min Rain = 0
KME1 210222Z 19010KT 10/M01 A3013 RMK A01 T01001007  RH  047%=      5-min Rain = 0
KME1 210223Z 19010KT 10/M01 A3013 RMK A01 T01001007  RH  047%=      5-min Rain = 0
KME1 210224Z 19010KT 10/M01 A3013 RMK A01 T00991008  RH  047%=      5-min Rain = 0
KME1 210225Z 18010KT 10/M01 A3013 RMK A01 T00991008  RH  047%=      5-min Rain = 0
KME1 210226Z 19010KT 10/M01 A3013 RMK A01 T00991007  RH  047%=      5-min Rain = 0
KME1 210227Z 19011KT 10/M01 A3013 RMK A01 T00991008  RH  047%=      5-min Rain = 0
KME1 210228Z 19011KT 10/M01 A3013 RMK A01 T00991008  RH  047%=      5-min Rain = 0
KME1 210229Z 18009KT 10/M01 A3013 RMK A01 T00991008  RH  047%=      5-min Rain = 0
KME1 210230Z 19010KT 10/M01 A3013 RMK A01 T00991008  RH  047%=      5-min Rain = 0
KME1 210231Z 19010KT 10/M01 A3013 RMK A01 T00981008  RH  048%=      5-min Rain = 0
KME1 210232Z 19010KT 10/M01 A3013 RMK A01 T00981008  RH  048%=      5-min Rain = 0
KME1 210233Z 19009KT 10/M01 A3013 RMK A01 T00981007  RH  048%=      5-min Rain = 0
KME1 210234Z 19011KT 10/M01 A3013 RMK A01 T00981008  RH  048%=      5-min Rain = 0
KME1 210235Z 19011KT 10/M01 A3013 RMK A01 T00981008  RH  048%=      5-min Rain = 0
KME1 210236Z 19010KT 10/M01 A3013 RMK A01 T00971008  RH  048%=      5-min Rain = 0
KME1 210237Z 19010KT 10/M01 A3013 RMK A01 T00971007  RH  048%=      5-min Rain = 0
KME1 210238Z 19010KT 10/M01 A3013 RMK A01 T00961007  RH  048%=      5-min Rain = 0
KME1 210239Z 19010KT 10/M01 A3013 RMK A01 T00961008  RH  048%=      5-min Rain = 0
KME1 210240Z 19011KT 10/M01 A3013 RMK A01 T00961008  RH  049%=      5-min Rain = 0
KME1 210241Z 19011KT 10/M01 A3013 RMK A01 T00961008  RH  048%=      5-min Rain = 0
KME1 210242Z 18010KT 10/M01 A3013 RMK A01 T00961008  RH  048%=      5-min Rain = 0
KME1 210243Z 19010KT 10/M01 A3013 RMK A01 T00971008  RH  048%=      5-min Rain = 0
KME1 210244Z 19010KT 10/M01 A3013 RMK A01 T00971008  RH  048%=      5-min Rain = 0
KME1 210245Z 19010KT 10/M01 A3013 RMK A01 T00961008  RH  048%=      5-min Rain = 0
KME1 210246Z 19011KT 10/M01 A3013 RMK A01 T00961008  RH  048%=      5-min Rain = 0
KME1 210247Z 19009KT 10/M01 A3013 RMK A01 T00961008  RH  048%=      5-min Rain = 0
KME1 210248Z 19011KT 10/M01 A3013 RMK A01 T00961008  RH  048%=      5-min Rain = 0
KME1 210249Z 19009KT 10/M01 A3013 RMK A01 T00971008  RH  048%=      5-min Rain = 0
KME1 210250Z 19010KT 10/M01 A3013 RMK A01 T00961008  RH  048%=      5-min Rain = 0
KME1 210251Z 18011KT 10/M01 A3013 RMK A01 T00951008  RH  048%=      5-min Rain = 0
KME1 210252Z 19010KT 10/M01 A3013 RMK A01 T00951009  RH  048%=      5-min Rain = 0
KME1 210253Z 19009KT 10/M01 A3013 RMK A01 T00961009  RH  048%=      5-min Rain = 0
KME1 210254Z 19009KT 10/M01 A3013 RMK A01 T00961009  RH  048%=      5-min Rain = 0
KME1 210255Z 19008KT 10/M01 A3013 RMK A01 T00951008  RH  049%=      5-min Rain = 0
KME1 210256Z 19009KT 09/M01 A3013 RMK A01 T00941008  RH  049%=      5-min Rain = 0
KME1 210257Z 19008KT 09/M01 A3013 RMK A01 T00941009  RH  049%=      5-min Rain = 0
KME1 210258Z 19008KT 09/M01 A3013 RMK A01 T00941009  RH  049%=      5-min Rain = 0
KME1 210259Z 19008KT 09/M01 A3013 RMK A01 T00941009  RH  049%=      5-min Rain = 0
KME1 210300Z 19009KT 09/M01 A3013 RMK A01 T00941009  RH  049%=      5-min Rain = 0
KME1 210301Z 19009KT 09/M01 A3013 RMK A01 T00941009  RH  049%=      5-min Rain = 0
KME1 210302Z 19007KT 09/M01 A3013 RMK A01 T00941009  RH  049%=      5-min Rain = 0
KME1 210303Z 19009KT 09/M01 A3013 RMK A01 T00931009  RH  049%=      5-min Rain = 0
KME1 210304Z 19009KT 09/M01 A3013 RMK A01 T00931009  RH  049%=      5-min Rain = 0
KME1 210305Z 19008KT 09/M01 A3013 RMK A01 T00931009  RH  049%=      5-min Rain = 0
KME1 210306Z 19007KT 09/M01 A3012 RMK A01 T00941009  RH  049%=      5-min Rain = 0
KME1 210307Z 19008KT 09/M01 A3012 RMK A01 T00931009  RH  049%=      5-min Rain = 0
KME1 210308Z 19008KT 09/M01 A3012 RMK A01 T00931009  RH  049%=      5-min Rain = 0
KME1 210309Z 19008KT 09/M01 A3012 RMK A01 T00921010  RH  049%=      5-min Rain = 0
KME1 210310Z 19009KT 09/M01 A3012 RMK A01 T00921010  RH  049%=      5-min Rain = 0
KME1 210311Z 19010KT 09/M01 A3012 RMK A01 T00931010  RH  049%=      5-min Rain = 0
KME1 210312Z 19008KT 09/M01 A3012 RMK A01 T00931010  RH  049%=      5-min Rain = 0
KME1 210313Z 19008KT 09/M01 A3012 RMK A01 T00931009  RH  049%=      5-min Rain = 0
KME1 210314Z 19009KT 09/M01 A3012 RMK A01 T00921009  RH  049%=      5-min Rain = 0
KME1 210315Z 19009KT 09/M01 A3012 RMK A01 T00921010  RH  049%=      5-min Rain = 0
KME1 210316Z 19009G15KT 09/M01 A3012 RMK A01 T00921010  RH  049%=      5-min Rain = 0
KME1 210317Z 19010KT 09/M01 A3012 RMK A01 T00921010  RH  049%=      5-min Rain = 0
KME1 210318Z 19009KT 09/M01 A3012 RMK A01 T00931010  RH  049%=      5-min Rain = 0
KME1 210319Z 19012KT 09/M01 A3012 RMK A01 T00931010  RH  048%=      5-min Rain = 0
KME1 210320Z 19009KT 09/M01 A3012 RMK A01 T00941010  RH  048%=      5-min Rain = 0
KME1 210321Z 19009KT 09/M01 A3012 RMK A01 T00941011  RH  048%=      5-min Rain = 0
KME1 210322Z 19010KT 09/M01 A3012 RMK A01 T00941010  RH  048%=      5-min Rain = 0
KME1 210323Z 19009KT 09/M01 A3011 RMK A01 T00941010  RH  048%=      5-min Rain = 0
KME1 210324Z 19009KT 09/M01 A3011 RMK A01 T00941010  RH  048%=      5-min Rain = 0
KME1 210325Z 19011KT 09/M01 A3011 RMK A01 T00931010  RH  048%=      5-min Rain = 0
KME1 210326Z 19011KT 09/M01 A3011 RMK A01 T00931011  RH  048%=      5-min Rain = 0
KME1 210327Z 18010KT 09/M01 A3011 RMK A01 T00931011  RH  048%=      5-min Rain = 0
KME1 210328Z 19009KT 09/M01 A3011 RMK A01 T00941011  RH  048%=      5-min Rain = 0
KME1 210329Z 18010KT 09/M01 A3011 RMK A01 T00931011  RH  048%=      5-min Rain = 0
KME1 210330Z 19011KT 09/M01 A3011 RMK A01 T00931011  RH  048%=      5-min Rain = 0
KME1 210331Z 19011KT 09/M01 A3011 RMK A01 T00931011  RH  048%=      5-min Rain = 0
KME1 210332Z 19012KT 09/M01 A3011 RMK A01 T00941011  RH  048%=      5-min Rain = 0
KME1 210333Z 19010KT 09/M01 A3011 RMK A01 T00941011  RH  048%=      5-min Rain = 0
KME1 210334Z 19011KT 09/M01 A3011 RMK A01 T00941011  RH  048%=      5-min Rain = 0
KME1 210335Z 19010KT 09/M01 A3011 RMK A01 T00931011  RH  048%=      5-min Rain = 0
KME1 210336Z 19011KT 09/M01 A3011 RMK A01 T00931011  RH  048%=      5-min Rain = 0
KME1 210337Z 19010KT 09/M01 A3011 RMK A01 T00931011  RH  048%=      5-min Rain = 0
KME1 210338Z 19009KT 09/M01 A3011 RMK A01 T00931011  RH  048%=      5-min Rain = 0
KME1 210339Z 20011KT 09/M01 A3011 RMK A01 T00931011  RH  048%=      5-min Rain = 0
KME1 210340Z 19012KT 09/M01 A3011 RMK A01 T00931012  RH  048%=      5-min Rain = 0
KME1 210341Z 19013KT 09/M01 A3011 RMK A01 T00941012  RH  048%=      5-min Rain = 0
KME1 210342Z 18012KT 09/M01 A3011 RMK A01 T00941011  RH  048%=      5-min Rain = 0
KME1 210343Z 19011KT 09/M01 A3011 RMK A01 T00941011  RH  048%=      5-min Rain = 0
KME1 210344Z 19011KT 09/M01 A3011 RMK A01 T00941011  RH  048%=      5-min Rain = 0
KME1 210345Z 19012KT 09/M01 A3011 RMK A01 T00941011  RH  048%=      5-min Rain = 0
KME1 210346Z 19015KT 09/M01 A301 RMK A01 T00941011  RH  048%=      5-min Rain = 0
KME1 210347Z 19011KT 09/M01 A301 RMK A01 T00941012  RH  048%=      5-min Rain = 0
KME1 210348Z 19012G18KT 10/M01 A301 RMK A01 T00951011  RH  048%=      5-min Rain = 0
KME1 210349Z 19010KT 10/M01 A301 RMK A01 T00951011  RH  048%=      5-min Rain = 0
KME1 210350Z 18011KT 09/M01 A301 RMK A01 T00941011  RH  048%=      5-min Rain = 0
KME1 210351Z 19013KT 09/M01 A301 RMK A01 T00931011  RH  048%=      5-min Rain = 0
KME1 210352Z 19012KT 09/M01 A301 RMK A01 T00931012  RH  048%=      5-min Rain = 0
KME1 210353Z 19014KT 09/M01 A301 RMK A01 T00931012  RH  048%=      5-min Rain = 0
KME1 210354Z 19013KT 09/M01 A301 RMK A01 T00941012  RH  048%=      5-min Rain = 0
KME1 210355Z 19013KT 09/M01 A301 RMK A01 T00941012  RH  048%=      5-min Rain = 0
KME1 210356Z 19013KT 09/M01 A301 RMK A01 T00941011  RH  048%=      5-min Rain = 0
KME1 210357Z 18011KT 09/M01 A301 RMK A01 T00941012  RH  048%=      5-min Rain = 0
KME1 210358Z 19012KT 09/M01 A301 RMK A01 T00941011  RH  048%=      5-min Rain = 0
KME1 210359Z 19013KT 09/M01 A301 RMK A01 T00941011  RH  048%=      5-min Rain = 0
KME1 210400Z 18014KT 09/M01 A301 RMK A01 T00941011  RH  048%=      5-min Rain = 0
KME1 210401Z 19014KT 09/M01 A301 RMK A01 T00941012  RH  048%=      5-min Rain = 0
KME1 210402Z 19013KT 09/M01 A301 RMK A01 T00941012  RH  048%=      5-min Rain = 0
KME1 210403Z 19013KT 09/M01 A301 RMK A01 T00941012  RH  048%=      5-min Rain = 0
KME1 210404Z 19012KT 09/M01 A301 RMK A01 T00931011  RH  048%=      5-min Rain = 0
KME1 210405Z 19014KT 09/M01 A301 RMK A01 T00921012  RH  048%=      5-min Rain = 0
KME1 210406Z 18011KT 09/M01 A301 RMK A01 T00921012  RH  048%=      5-min Rain = 0
KME1 210407Z 19011KT 09/M01 A301 RMK A01 T00921012  RH  048%=      5-min Rain = 0
KME1 210408Z 18012KT 09/M01 A301 RMK A01 T00911012  RH  048%=      5-min Rain = 0
KME1 210409Z 19012KT 09/M01 A301 RMK A01 T00911011  RH  049%=      5-min Rain = 0
KME1 210410Z 18012KT 09/M01 A301 RMK A01 T00911011  RH  049%=      5-min Rain = 0
KME1 210411Z 18011KT 09/M01 A301 RMK A01 T00911011  RH  049%=      5-min Rain = 0
KME1 210412Z 19011KT 09/M01 A301 RMK A01 T00911011  RH  049%=      5-min Rain = 0
KME1 210413Z 18011KT 09/M01 A301 RMK A01 T00901011  RH  049%=      5-min Rain = 0
KME1 210414Z 18014KT 09/M01 A301 RMK A01 T00901011  RH  049%=      5-min Rain = 0
KME1 210415Z 18013KT 09/M01 A301 RMK A01 T00901011  RH  049%=      5-min Rain = 0
KME1 210416Z 19015KT 09/M01 A301 RMK A01 T00911011  RH  049%=      5-min Rain = 0
KME1 210417Z 19015KT 09/M01 A301 RMK A01 T00911011  RH  049%=      5-min Rain = 0
KME1 210418Z 18013G18KT 09/M01 A301 RMK A01 T00921011  RH  049%=      5-min Rain = 0
KME1 210419Z 19012G18KT 09/M01 A301 RMK A01 T00911011  RH  049%=      5-min Rain = 0
KME1 210420Z 18011KT 09/M01 A301 RMK A01 T00911011  RH  049%=      5-min Rain = 0
KME1 210421Z 19010KT 09/M01 A301 RMK A01 T00901011  RH  049%=      5-min Rain = 0
KME1 210422Z 18010KT 09/M01 A301 RMK A01 T00891011  RH  049%=      5-min Rain = 0
KME1 210423Z 19013KT 09/M01 A301 RMK A01 T00881011  RH  050%=      5-min Rain = 0
KME1 210424Z 19012KT 09/M01 A301 RMK A01 T00881012  RH  049%=      5-min Rain = 0
KME1 210425Z 19014KT 09/M01 A301 RMK A01 T00881012  RH  049%=      5-min Rain = 0
KME1 210426Z 19014KT 09/M01 A301 RMK A01 T00891012  RH  049%=      5-min Rain = 0
KME1 210427Z 19012KT 09/M01 A301 RMK A01 T00891012  RH  049%=      5-min Rain = 0
KME1 210428Z 18013KT 09/M01 A301 RMK A01 T00891012  RH  049%=      5-min Rain = 0
KME1 210429Z 19013KT 09/M01 A301 RMK A01 T00891012  RH  049%=      5-min Rain = 0
KME1 210430Z 18012KT 09/M01 A301 RMK A01 T00881012  RH  050%=      5-min Rain = 0
KME1 210431Z 18011KT 09/M01 A301 RMK A01 T00881011  RH  050%=      5-min Rain = 0
KME1 210432Z 18013G20KT 09/M01 A301 RMK A01 T00881012  RH  050%=      5-min Rain = 0
KME1 210433Z 19014KT 09/M01 A301 RMK A01 T00871012  RH  050%=      5-min Rain = 0
KME1 210434Z 19012KT 09/M01 A301 RMK A01 T00871012  RH  050%=      5-min Rain = 0
KME1 210435Z 19011KT 09/M01 A301 RMK A01 T00871011  RH  050%=      5-min Rain = 0
KME1 210436Z 19014KT 09/M01 A3009 RMK A01 T00861012  RH  050%=      5-min Rain = 0
KME1 210437Z 18012KT 09/M01 A3009 RMK A01 T00861012  RH  050%=      5-min Rain = 0
KME1 210438Z 19012G17KT 09/M01 A3009 RMK A01 T00871012  RH  050%=      5-min Rain = 0
KME1 210439Z 19012KT 09/M01 A3009 RMK A01 T00861012  RH  050%=      5-min Rain = 0
KME1 210440Z 19011KT 09/M01 A3009 RMK A01 T00861012  RH  050%=      5-min Rain = 0
KME1 210441Z 19012KT 09/M01 A3009 RMK A01 T00851012  RH  050%=      5-min Rain = 0
KME1 210442Z 19012KT 09/M01 A3009 RMK A01 T00851012  RH  050%=      5-min Rain = 0
KME1 210443Z 19013KT 09/M01 A3009 RMK A01 T00851012  RH  050%=      5-min Rain = 0
KME1 210444Z 19012KT 09/M01 A3009 RMK A01 T00851013  RH  050%=      5-min Rain = 0
KME1 210445Z 19013KT 09/M01 A3009 RMK A01 T00851013  RH  050%=      5-min Rain = 0
KME1 210446Z 19013KT 09/M01 A3009 RMK A01 T00851013  RH  050%=      5-min Rain = 0
KME1 210447Z 19013KT 09/M01 A3009 RMK A01 T00861013  RH  050%=      5-min Rain = 0
KME1 210448Z 19011KT 09/M01 A3009 RMK A01 T00851013  RH  050%=      5-min Rain = 0
KME1 210449Z 19012KT 09/M01 A3009 RMK A01 T00851013  RH  050%=      5-min Rain = 0
KME1 210450Z 19012KT 09/M01 A3009 RMK A01 T00851013  RH  050%=      5-min Rain = 0
KME1 210451Z 19012KT 09/M01 A3009 RMK A01 T00851013  RH  050%=      5-min Rain = 0
KME1 210452Z 19011KT 09/M01 A3009 RMK A01 T00851013  RH  050%=      5-min Rain = 0
KME1 210453Z 19012KT 09/M01 A3009 RMK A01 T00851013  RH  050%=      5-min Rain = 0
KME1 210454Z 19011G16KT 08/M01 A3009 RMK A01 T00841013  RH  050%=      5-min Rain = 0
KME1 210455Z 19011KT 08/M01 A3009 RMK A01 T00841013  RH  050%=      5-min Rain = 0
KME1 210456Z 19013KT 08/M01 A3009 RMK A01 T00841013  RH  051%=      5-min Rain = 0
KME1 210457Z 19013KT 08/M01 A3009 RMK A01 T00841013  RH  050%=      5-min Rain = 0
KME1 210458Z 19011KT 09/M01 A3009 RMK A01 T00851013  RH  050%=      5-min Rain = 0
KME1 210459Z 19013KT 08/M01 A3009 RMK A01 T00841013  RH  050%=      5-min Rain = 0
KME1 210500Z 19014KT 08/M01 A3009 RMK A01 T00841014  RH  050%=      5-min Rain = 0
KME1 210501Z 19012KT 09/M01 A3009 RMK A01 T00851014  RH  050%=      5-min Rain = 0
KME1 210502Z 19012G17KT 09/M01 A3009 RMK A01 T00851013  RH  050%=      5-min Rain = 0
KME1 210503Z 19013KT 08/M01 A3009 RMK A01 T00841014  RH  050%=      5-min Rain = 0
KME1 210504Z 19014KT 08/M01 A3009 RMK A01 T00841014  RH  050%=      5-min Rain = 0
KME1 210505Z 19013KT 08/M01 A3009 RMK A01 T00841014  RH  050%=      5-min Rain = 0
KME1 210506Z 19012KT 08/M01 A3009 RMK A01 T00841014  RH  050%=      5-min Rain = 0
KME1 210507Z 19010KT 08/M01 A3009 RMK A01 T00841014  RH  050%=      5-min Rain = 0
KME1 210508Z 19012KT 08/M01 A3009 RMK A01 T00841014  RH  050%=      5-min Rain = 0
KME1 210509Z 19011KT 08/M01 A3009 RMK A01 T00841014  RH  050%=      5-min Rain = 0
KME1 210510Z 19012KT 08/M01 A3009 RMK A01 T00841013  RH  050%=      5-min Rain = 0
KME1 210511Z 19013G18KT 08/M01 A3009 RMK A01 T00841014  RH  050%=      5-min Rain = 0
KME1 210512Z 19012KT 08/M01 A3009 RMK A01 T00841014  RH  050%=      5-min Rain = 0
KME1 210513Z 19010KT 08/M01 A3009 RMK A01 T00841014  RH  050%=      5-min Rain = 0
KME1 210514Z 19012KT 08/M01 A3009 RMK A01 T00831014  RH  050%=      5-min Rain = 0
KME1 210515Z 19012G17KT 08/M01 A3009 RMK A01 T00831014  RH  051%=      5-min Rain = 0
KME1 210516Z 19011KT 08/M01 A3009 RMK A01 T00831014  RH  050%=      5-min Rain = 0
KME1 210517Z 19012KT 08/M01 A3009 RMK A01 T00841014  RH  050%=      5-min Rain = 0
KME1 210518Z 19013KT 08/M01 A3009 RMK A01 T00841014  RH  050%=      5-min Rain = 0
KME1 210519Z 19012KT 08/M01 A3009 RMK A01 T00831014  RH  050%=      5-min Rain = 0
KME1 210520Z 19013KT 08/M01 A3009 RMK A01 T00831014  RH  050%=      5-min Rain = 0
KME1 210521Z 19012G18KT 08/M02 A3009 RMK A01 T00841015  RH  050%=      5-min Rain = 0
KME1 210522Z 19011KT 08/M02 A3009 RMK A01 T00841015  RH  050%=      5-min Rain = 0
KME1 210523Z 19012KT 08/M01 A3009 RMK A01 T00841014  RH  050%=      5-min Rain = 0
KME1 210524Z 19011KT 08/M01 A3009 RMK A01 T00831014  RH  050%=      5-min Rain = 0
KME1 210525Z 19013KT 08/M01 A3009 RMK A01 T00831014  RH  050%=      5-min Rain = 0
KME1 210526Z 20013KT 08/M02 A3009 RMK A01 T00831015  RH  050%=      5-min Rain = 0
KME1 210527Z 19013KT 08/M02 A3009 RMK A01 T00831015  RH  050%=      5-min Rain = 0
KME1 210528Z 19012KT 08/M02 A3009 RMK A01 T00841015  RH  050%=      5-min Rain = 0
KME1 210529Z 19013KT 08/M02 A3009 RMK A01 T00831015  RH  050%=      5-min Rain = 0
KME1 210530Z 19012KT 08/M02 A3009 RMK A01 T00831015  RH  050%=      5-min Rain = 0
KME1 210531Z 19012G17KT 08/M02 A3009 RMK A01 T00841015  RH  050%=      5-min Rain = 0
KME1 210532Z 19012G17KT 08/M02 A3009 RMK A01 T00831015  RH  050%=      5-min Rain = 0
KME1 210533Z 20013KT 08/M02 A3009 RMK A01 T00831015  RH  050%=      5-min Rain = 0
KME1 210534Z 19013KT 08/M02 A3009 RMK A01 T00831015  RH  050%=      5-min Rain = 0
KME1 210535Z 20013KT 08/M02 A3009 RMK A01 T00831015  RH  050%=      5-min Rain = 0
KME1 210536Z 19013KT 08/M02 A3009 RMK A01 T00831015  RH  050%=      5-min Rain = 0
KME1 210537Z 20013G18KT 08/M02 A3008 RMK A01 T00831015  RH  050%=      5-min Rain = 0
KME1 210538Z 19013G20KT 08/M02 A3008 RMK A01 T00821015  RH  050%=      5-min Rain = 0
KME1 210539Z 19014KT 08/M02 A3008 RMK A01 T00821015  RH  051%=      5-min Rain = 0
KME1 210540Z 20014KT 08/M02 A3008 RMK A01 T00821015  RH  050%=      5-min Rain = 0
KME1 210541Z 19014KT 08/M02 A3008 RMK A01 T00821015  RH  050%=      5-min Rain = 0
KME1 210542Z 19013KT 08/M02 A3008 RMK A01 T00821015  RH  050%=      5-min Rain = 0
KME1 210543Z 20014KT 08/M02 A3008 RMK A01 T00821015  RH  050%=      5-min Rain = 0
KME1 210544Z 20014KT 08/M02 A3008 RMK A01 T00811015  RH  050%=      5-min Rain = 0
KME1 210545Z 19014KT 08/M02 A3008 RMK A01 T00821015  RH  051%=      5-min Rain = 0
KME1 210546Z 20013KT 08/M02 A3008 RMK A01 T00811015  RH  050%=      5-min Rain = 0
KME1 210547Z 19016KT 08/M02 A3008 RMK A01 T00811015  RH  050%=      5-min Rain = 0
KME1 210548Z 19013KT 08/M02 A3008 RMK A01 T00811015  RH  050%=      5-min Rain = 0
KME1 210549Z 19015KT 08/M02 A3008 RMK A01 T00811015  RH  051%=      5-min Rain = 0
KME1 210550Z 19012KT 08/M02 A3008 RMK A01 T00811016  RH  051%=      5-min Rain = 0
KME1 210551Z 20014KT 08/M02 A3008 RMK A01 T00811015  RH  051%=      5-min Rain = 0
KME1 210552Z 20015KT 08/M02 A3008 RMK A01 T00811015  RH  051%=      5-min Rain = 0
KME1 210553Z 19015KT 08/M02 A3008 RMK A01 T00811016  RH  051%=      5-min Rain = 0
KME1 210554Z 20013KT 08/M02 A3008 RMK A01 T00811016  RH  050%=      5-min Rain = 0
KME1 210555Z 19014KT 08/M02 A3008 RMK A01 T00811016  RH  051%=      5-min Rain = 0
KME1 210556Z 20013KT 08/M02 A3008 RMK A01 T00811015  RH  051%=      5-min Rain = 0
KME1 210557Z 19013KT 08/M02 A3008 RMK A01 T00811015  RH  051%=      5-min Rain = 0
KME1 210558Z 19016G21KT 08/M02 A3008 RMK A01 T00811015  RH  051%=      5-min Rain = 0
KME1 210559Z 19015KT 08/M02 A3008 RMK A01 T00811015  RH  051%=      5-min Rain = 0

Page generated in 0.0854 seconds.